Time,TemperatureF,DewpointF,PressureIn,WindDirection,WindDirectionDegrees,WindSpeedMPH,WindSpeedGustMPH,Humidity,HourlyPrecipIn,Conditions,Clouds,dailyrainin,SoftwareType,DateUTC
2013-11-13 00:00:00,19.6,15.8,30.67,NW,306,0.0,0.0,85,0.00,,,0.00,VWS V14.01,2013-11-13 06:00:00,
2013-11-13 00:02:00,19.6,15.8,30.67,NW,306,0.0,0.0,85,0.00,,CLR,0.00,VWS V14.01,2013-11-13 06:02:00,
2013-11-13 00:03:00,19.6,15.8,30.67,NW,306,0.0,0.0,85,0.00,,CLR,0.00,VWS V14.01,2013-11-13 06:03:00,
2013-11-13 00:04:00,19.6,15.8,30.67,NW,306,0.0,0.0,85,0.00,,CLR,0.00,VWS V14.01,2013-11-13 06:04:00,
2013-11-13 00:05:00,19.6,15.8,30.67,NW,306,0.0,0.0,85,0.00,,CLR,0.00,VWS V14.01,2013-11-13 06:05:00,
2013-11-13 00:07:00,19.4,15.6,30.67,NW,306,0.0,0.0,85,0.00,,CLR,0.00,VWS V14.01,2013-11-13 06:07:00,
2013-11-13 00:08:00,19.4,15.9,30.67,NW,306,0.0,0.0,86,0.00,,CLR,0.00,VWS V14.01,2013-11-13 06:08:00,
2013-11-13 00:09:00,19.4,15.9,30.67,NW,306,0.0,0.0,86,0.00,,CLR,0.00,VWS V14.01,2013-11-13 06:09:00,
2013-11-13 00:10:00,19.4,15.9,30.67,NW,306,0.0,0.0,86,0.00,,CLR,0.00,VWS V14.01,2013-11-13 06:10:00,
2013-11-13 00:12:00,19.4,15.9,30.67,NW,306,0.0,0.0,86,0.00,,CLR,0.00,VWS V14.01,2013-11-13 06:12:00,
2013-11-13 00:13:00,19.4,15.9,30.67,NW,306,0.0,0.0,86,0.00,,CLR,0.00,VWS V14.01,2013-11-13 06:13:00,
2013-11-13 00:14:00,19.4,15.9,30.67,NW,306,0.0,0.0,86,0.00,,CLR,0.00,VWS V14.01,2013-11-13 06:14:00,
2013-11-13 00:15:00,19.4,15.9,30.67,NW,306,0.0,0.0,86,0.00,,CLR,0.00,VWS V14.01,2013-11-13 06:15:00,
2013-11-13 00:17:00,19.4,15.9,30.67,NW,306,0.0,0.0,86,0.00,,CLR,0.00,VWS V14.01,2013-11-13 06:17:00,
2013-11-13 00:18:00,19.4,15.9,30.67,NW,306,0.0,0.0,86,0.00,,CLR,0.00,VWS V14.01,2013-11-13 06:18:00,
2013-11-13 00:19:00,19.4,15.9,30.67,NW,306,0.0,0.0,86,0.00,,CLR,0.00,VWS V14.01,2013-11-13 06:19:00,
2013-11-13 00:20:00,19.6,16.1,30.67,NW,306,0.0,0.0,86,0.00,,CLR,0.00,VWS V14.01,2013-11-13 06:20:00,
2013-11-13 00:21:00,19.6,16.1,30.67,NW,306,0.0,0.0,86,0.00,,CLR,0.00,VWS V14.01,2013-11-13 06:21:00,
2013-11-13 00:22:00,19.6,16.1,30.67,NW,306,0.0,0.0,86,0.00,,CLR,0.00,VWS V14.01,2013-11-13 06:22:00,
2013-11-13 00:23:00,19.6,16.1,30.67,NW,306,0.0,0.0,86,0.00,,CLR,0.00,VWS V14.01,2013-11-13 06:23:00,
2013-11-13 00:24:00,19.6,16.1,30.67,NW,306,0.0,0.0,86,0.00,,CLR,0.00,VWS V14.01,2013-11-13 06:24:00,
2013-11-13 00:25:00,19.6,16.1,30.67,NW,306,0.0,0.0,86,0.00,,CLR,0.00,VWS V14.01,2013-11-13 06:25:00,
2013-11-13 00:26:00,19.6,16.1,30.67,NW,306,0.0,0.0,86,0.00,,CLR,0.00,VWS V14.01,2013-11-13 06:26:00,
2013-11-13 00:28:00,19.4,15.9,30.67,NW,306,0.0,0.0,86,0.00,,CLR,0.00,VWS V14.01,2013-11-13 06:28:00,
2013-11-13 00:29:00,19.4,15.9,30.67,NW,306,0.0,0.0,86,0.00,,CLR,0.00,VWS V14.01,2013-11-13 06:29:00,
2013-11-13 00:30:00,19.4,15.9,30.66,NW,306,0.0,0.0,86,0.00,,CLR,0.00,VWS V14.01,2013-11-13 06:30:00,
2013-11-13 00:31:00,19.4,15.9,30.66,NW,306,0.0,0.0,86,0.00,,CLR,0.00,VWS V14.01,2013-11-13 06:31:00,
2013-11-13 00:33:00,19.4,15.9,30.66,NW,306,0.0,0.0,86,0.00,,CLR,0.00,VWS V14.01,2013-11-13 06:33:00,
2013-11-13 00:34:00,19.4,15.9,30.66,NW,306,0.0,0.0,86,0.00,,CLR,0.00,VWS V14.01,2013-11-13 06:34:00,
2013-11-13 00:36:00,19.4,15.9,30.66,NW,306,0.0,0.0,86,0.00,,CLR,0.00,VWS V14.01,2013-11-13 06:36:00,
2013-11-13 00:38:00,19.3,15.8,30.66,NW,306,0.0,0.0,86,0.00,,CLR,0.00,VWS V14.01,2013-11-13 06:38:00,
2013-11-13 00:39:00,19.3,15.8,30.66,NW,306,0.0,0.0,86,0.00,,CLR,0.00,VWS V14.01,2013-11-13 06:39:00,
2013-11-13 00:41:00,19.3,15.8,30.66,NW,306,0.0,0.0,86,0.00,,CLR,0.00,VWS V14.01,2013-11-13 06:41:00,
2013-11-13 00:43:00,19.3,15.8,30.66,NW,306,0.0,0.0,86,0.00,,CLR,0.00,VWS V14.01,2013-11-13 06:43:00,
2013-11-13 00:44:00,19.3,15.8,30.66,NW,306,0.0,0.0,86,0.00,,CLR,0.00,VWS V14.01,2013-11-13 06:44:00,
2013-11-13 00:45:00,19.3,15.8,30.66,NW,306,0.0,0.0,86,0.00,,CLR,0.00,VWS V14.01,2013-11-13 06:45:00,
2013-11-13 00:46:00,19.3,15.8,30.66,NW,306,0.0,0.0,86,0.00,,CLR,0.00,VWS V14.01,2013-11-13 06:46:00,
2013-11-13 00:48:00,19.1,15.6,30.66,NW,306,0.0,0.0,86,0.00,,CLR,0.00,VWS V14.01,2013-11-13 06:48:00,
2013-11-13 00:49:00,19.1,15.6,30.66,NW,306,0.0,0.0,86,0.00,,CLR,0.00,VWS V14.01,2013-11-13 06:49:00,
2013-11-13 00:50:00,19.1,15.6,30.66,NW,306,0.0,0.0,86,0.00,,CLR,0.00,VWS V14.01,2013-11-13 06:50:00,
2013-11-13 00:52:00,19.1,15.6,30.66,NW,306,0.0,0.0,86,0.00,,CLR,0.00,VWS V14.01,2013-11-13 06:52:00,
2013-11-13 00:53:00,19.1,15.6,30.66,NW,306,0.0,0.0,86,0.00,,CLR,0.00,VWS V14.01,2013-11-13 06:53:00,
2013-11-13 00:54:00,19.1,15.6,30.66,NW,306,0.0,0.0,86,0.00,,CLR,0.00,VWS V14.01,2013-11-13 06:54:00,
2013-11-13 00:55:00,19.1,15.6,30.66,NW,306,0.0,0.0,86,0.00,,CLR,0.00,VWS V14.01,2013-11-13 06:55:00,
2013-11-13 00:57:00,19.1,15.6,30.66,NW,306,0.0,0.0,86,0.00,,CLR,0.00,VWS V14.01,2013-11-13 06:57:00,
2013-11-13 00:58:00,19.1,15.6,30.66,NW,306,0.0,0.0,86,0.00,,CLR,0.00,VWS V14.01,2013-11-13 06:58:00,
2013-11-13 00:59:00,19.1,15.6,30.66,NW,306,0.0,0.0,86,0.00,,CLR,0.00,VWS V14.01,2013-11-13 06:59:00,
2013-11-13 01:00:00,19.0,15.5,30.66,NW,306,0.0,0.0,86,0.00,,CLR,0.00,VWS V14.01,2013-11-13 07:00:00,
2013-11-13 01:02:00,19.0,15.5,30.66,NW,306,0.0,0.0,86,0.00,,CLR,0.00,VWS V14.01,2013-11-13 07:02:00,
2013-11-13 01:03:00,19.0,15.5,30.66,NW,306,0.0,0.0,86,0.00,,CLR,0.00,VWS V14.01,2013-11-13 07:03:00,
2013-11-13 01:04:00,19.0,15.5,30.66,NW,306,0.0,0.0,86,0.00,,CLR,0.00,VWS V14.01,2013-11-13 07:04:00,
2013-11-13 01:05:00,19.0,15.5,30.66,NW,306,0.0,0.0,86,0.00,,CLR,0.00,VWS V14.01,2013-11-13 07:05:00,
2013-11-13 01:06:00,19.0,15.5,30.66,NW,306,0.0,0.0,86,0.00,,CLR,0.00,VWS V14.01,2013-11-13 07:06:00,
2013-11-13 01:07:00,19.0,15.5,30.66,NW,306,0.0,0.0,86,0.00,,CLR,0.00,VWS V14.01,2013-11-13 07:07:00,
2013-11-13 01:08:00,19.0,15.5,30.66,NW,306,0.0,0.0,86,0.00,,CLR,0.00,VWS V14.01,2013-11-13 07:08:00,
2013-11-13 01:09:00,19.0,15.5,30.66,NW,306,0.0,0.0,86,0.00,,CLR,0.00,VWS V14.01,2013-11-13 07:09:00,
2013-11-13 01:10:00,19.0,15.5,30.66,NW,306,0.0,0.0,86,0.00,,CLR,0.00,VWS V14.01,2013-11-13 07:10:00,
2013-11-13 01:11:00,19.0,15.5,30.66,NW,306,0.0,0.0,86,0.00,,CLR,0.00,VWS V14.01,2013-11-13 07:11:00,
2013-11-13 01:13:00,19.0,15.5,30.66,NW,306,0.0,0.0,86,0.00,,CLR,0.00,VWS V14.01,2013-11-13 07:13:00,
2013-11-13 01:14:00,19.0,15.5,30.66,NW,306,0.0,0.0,86,0.00,,CLR,0.00,VWS V14.01,2013-11-13 07:14:00,
2013-11-13 01:15:00,18.8,15.3,30.66,NW,306,0.0,0.0,86,0.00,,CLR,0.00,VWS V14.01,2013-11-13 07:15:00,
2013-11-13 01:17:00,18.8,15.3,30.66,NW,306,0.0,0.0,86,0.00,,CLR,0.00,VWS V14.01,2013-11-13 07:17:00,
2013-11-13 01:18:00,18.8,15.3,30.66,NW,306,0.0,0.0,86,0.00,,CLR,0.00,VWS V14.01,2013-11-13 07:18:00,
2013-11-13 01:19:00,18.8,15.3,30.66,NW,306,0.0,0.0,86,0.00,,CLR,0.00,VWS V14.01,2013-11-13 07:19:00,
2013-11-13 01:20:00,18.8,15.6,30.66,NW,306,0.0,0.0,87,0.00,,CLR,0.00,VWS V14.01,2013-11-13 07:20:00,
2013-11-13 01:22:00,18.8,15.6,30.66,NW,306,0.0,0.0,87,0.00,,CLR,0.00,VWS V14.01,2013-11-13 07:22:00,
2013-11-13 01:24:00,18.8,15.6,30.66,NW,306,0.0,0.0,87,0.00,,CLR,0.00,VWS V14.01,2013-11-13 07:24:00,
2013-11-13 01:25:00,18.8,15.6,30.66,NW,306,0.0,0.0,87,0.00,,CLR,0.00,VWS V14.01,2013-11-13 07:25:00,
2013-11-13 01:28:00,19.0,15.8,30.66,NW,306,0.0,0.0,87,0.00,,CLR,0.00,VWS V14.01,2013-11-13 07:28:00,
2013-11-13 01:29:00,18.8,15.6,30.66,NW,306,0.0,0.0,87,0.00,,CLR,0.00,VWS V14.01,2013-11-13 07:29:00,
2013-11-13 01:30:00,18.8,15.6,30.65,NW,306,0.0,0.0,87,0.00,,,0.00,VWS V14.01,2013-11-13 07:30:00,
2013-11-13 01:31:00,19.0,15.8,30.65,NW,306,0.0,0.0,87,0.00,,CLR,0.00,VWS V14.01,2013-11-13 07:31:00,
2013-11-13 01:33:00,18.8,15.6,30.65,NW,306,0.0,0.0,87,0.00,,CLR,0.00,VWS V14.01,2013-11-13 07:33:00,
2013-11-13 01:34:00,18.8,15.6,30.65,NW,306,0.0,0.0,87,0.00,,CLR,0.00,VWS V14.01,2013-11-13 07:34:00,
2013-11-13 01:35:00,18.8,15.6,30.65,NW,306,0.0,0.0,87,0.00,,CLR,0.00,VWS V14.01,2013-11-13 07:35:00,
2013-11-13 01:36:00,18.8,15.6,30.65,NW,306,0.0,0.0,87,0.00,,CLR,0.00,VWS V14.01,2013-11-13 07:36:00,
2013-11-13 01:38:00,18.8,15.6,30.65,NW,306,0.0,0.0,87,0.00,,CLR,0.00,VWS V14.01,2013-11-13 07:38:00,
2013-11-13 01:39:00,18.8,15.6,30.65,NW,306,0.0,0.0,87,0.00,,CLR,0.00,VWS V14.01,2013-11-13 07:39:00,
2013-11-13 01:40:00,18.8,15.6,30.65,NW,306,0.0,0.0,87,0.00,,CLR,0.00,VWS V14.01,2013-11-13 07:40:00,
2013-11-13 01:41:00,18.8,15.6,30.65,NW,306,0.0,0.0,87,0.00,,CLR,0.00,VWS V14.01,2013-11-13 07:41:00,
2013-11-13 01:43:00,18.8,15.6,30.65,NW,306,0.0,0.0,87,0.00,,CLR,0.00,VWS V14.01,2013-11-13 07:43:00,
2013-11-13 01:44:00,18.8,15.6,30.65,NW,306,0.0,0.0,87,0.00,,CLR,0.00,VWS V14.01,2013-11-13 07:44:00,
2013-11-13 01:45:00,18.8,15.6,30.65,NW,306,0.0,0.0,87,0.00,,CLR,0.00,VWS V14.01,2013-11-13 07:45:00,
2013-11-13 01:46:00,18.7,15.5,30.65,NW,306,0.0,0.0,87,0.00,,CLR,0.00,VWS V14.01,2013-11-13 07:46:00,
2013-11-13 01:48:00,18.7,15.5,30.65,NW,306,0.0,0.0,87,0.00,,CLR,0.00,VWS V14.01,2013-11-13 07:48:00,
2013-11-13 01:50:00,18.7,15.5,30.65,NW,306,0.0,0.0,87,0.00,,CLR,0.00,VWS V14.01,2013-11-13 07:50:00,
2013-11-13 01:51:00,18.7,15.5,30.65,NW,306,0.0,0.0,87,0.00,,CLR,0.00,VWS V14.01,2013-11-13 07:51:00,
2013-11-13 01:53:00,18.7,15.5,30.65,NW,306,0.0,0.0,87,0.00,,CLR,0.00,VWS V14.01,2013-11-13 07:53:00,
2013-11-13 01:55:00,18.5,15.3,30.65,NW,306,0.0,0.0,87,0.00,,CLR,0.00,VWS V14.01,2013-11-13 07:55:00,
2013-11-13 01:56:00,18.5,15.3,30.65,NW,306,0.0,0.0,87,0.00,,CLR,0.00,VWS V14.01,2013-11-13 07:56:00,
2013-11-13 01:58:00,18.5,15.3,30.65,NW,306,0.0,0.0,87,0.00,,CLR,0.00,VWS V14.01,2013-11-13 07:58:00,
2013-11-13 02:00:00,18.5,15.3,30.65,NW,306,0.0,0.0,87,0.00,,CLR,0.00,VWS V14.01,2013-11-13 08:00:00,
2013-11-13 02:01:00,18.5,15.3,30.65,NW,306,0.0,0.0,87,0.00,,CLR,0.00,VWS V14.01,2013-11-13 08:01:00,
2013-11-13 02:04:00,18.5,15.3,30.65,NW,306,0.0,0.0,87,0.00,,CLR,0.00,VWS V14.01,2013-11-13 08:04:00,
2013-11-13 02:05:00,18.5,15.3,30.65,NW,306,0.0,0.0,87,0.00,,CLR,0.00,VWS V14.01,2013-11-13 08:05:00,
2013-11-13 02:06:00,18.5,15.3,30.65,NW,306,0.0,0.0,87,0.00,,CLR,0.00,VWS V14.01,2013-11-13 08:06:00,
2013-11-13 02:09:00,18.5,15.3,30.65,NW,306,0.0,0.0,87,0.00,,CLR,0.00,VWS V14.01,2013-11-13 08:09:00,
2013-11-13 02:10:00,18.5,15.3,30.65,NW,306,0.0,0.0,87,0.00,,CLR,0.00,VWS V14.01,2013-11-13 08:10:00,
2013-11-13 02:11:00,18.5,15.3,30.65,NW,306,0.0,0.0,87,0.00,,CLR,0.00,VWS V14.01,2013-11-13 08:11:00,
2013-11-13 02:12:00,18.5,15.3,30.65,NW,306,0.0,0.0,87,0.00,,CLR,0.00,VWS V14.01,2013-11-13 08:12:00,
2013-11-13 02:14:00,18.5,15.3,30.65,NW,306,0.0,0.0,87,0.00,,CLR,0.00,VWS V14.01,2013-11-13 08:14:00,
2013-11-13 02:15:00,18.5,15.3,30.65,NW,306,0.0,0.0,87,0.00,,CLR,0.00,VWS V14.01,2013-11-13 08:15:00,
2013-11-13 02:16:00,18.5,15.3,30.65,NW,306,0.0,0.0,87,0.00,,CLR,0.00,VWS V14.01,2013-11-13 08:16:00,
2013-11-13 02:17:00,18.5,15.3,30.65,NW,306,0.0,0.0,87,0.00,,CLR,0.00,VWS V14.01,2013-11-13 08:17:00,
2013-11-13 02:19:00,18.3,15.1,30.65,NW,306,0.0,0.0,87,0.00,,CLR,0.00,VWS V14.01,2013-11-13 08:19:00,
2013-11-13 02:20:00,18.3,15.1,30.65,NW,306,0.0,0.0,87,0.00,,CLR,0.00,VWS V14.01,2013-11-13 08:20:00,
2013-11-13 02:22:00,18.3,15.1,30.65,NW,306,0.0,0.0,87,0.00,,CLR,0.00,VWS V14.01,2013-11-13 08:22:00,
2013-11-13 02:24:00,18.3,15.1,30.65,NW,306,0.0,0.0,87,0.00,,CLR,0.00,VWS V14.01,2013-11-13 08:24:00,
2013-11-13 02:25:00,18.3,15.1,30.65,NW,306,0.0,0.0,87,0.00,,CLR,0.00,VWS V14.01,2013-11-13 08:25:00,
2013-11-13 02:27:00,18.3,15.1,30.65,NW,306,0.0,0.0,87,0.00,,CLR,0.00,VWS V14.01,2013-11-13 08:27:00,
2013-11-13 02:29:00,18.3,15.1,30.64,NW,306,0.0,0.0,87,0.00,,CLR,0.00,VWS V14.01,2013-11-13 08:29:00,
2013-11-13 02:30:00,18.3,15.1,30.64,NW,306,0.0,0.0,87,0.00,,CLR,0.00,VWS V14.01,2013-11-13 08:30:00,
2013-11-13 02:32:00,18.3,15.1,30.64,NW,306,0.0,0.0,87,0.00,,CLR,0.00,VWS V14.01,2013-11-13 08:32:00,
2013-11-13 02:33:00,18.3,15.1,30.64,NW,306,0.0,0.0,87,0.00,,CLR,0.00,VWS V14.01,2013-11-13 08:33:00,
2013-11-13 02:35:00,18.2,15.0,30.64,NW,306,0.0,0.0,87,0.00,,CLR,0.00,VWS V14.01,2013-11-13 08:35:00,
2013-11-13 02:36:00,18.2,15.0,30.64,NW,306,0.0,0.0,87,0.00,,CLR,0.00,VWS V14.01,2013-11-13 08:36:00,
2013-11-13 02:37:00,18.2,15.0,30.64,NW,306,0.0,0.0,87,0.00,,CLR,0.00,VWS V14.01,2013-11-13 08:37:00,
2013-11-13 02:38:00,18.2,15.0,30.64,NW,306,0.0,0.0,87,0.00,,CLR,0.00,VWS V14.01,2013-11-13 08:38:00,
2013-11-13 02:40:00,18.2,15.0,30.64,NW,306,0.0,0.0,87,0.00,,CLR,0.00,VWS V14.01,2013-11-13 08:40:00,
2013-11-13 02:41:00,18.2,15.0,30.64,NW,306,0.0,0.0,87,0.00,,CLR,0.00,VWS V14.01,2013-11-13 08:41:00,
2013-11-13 02:42:00,18.2,15.0,30.64,NW,306,0.0,0.0,87,0.00,,CLR,0.00,VWS V14.01,2013-11-13 08:42:00,
2013-11-13 02:43:00,18.2,15.0,30.64,NW,306,0.0,0.0,87,0.00,,CLR,0.00,VWS V14.01,2013-11-13 08:43:00,
2013-11-13 02:45:00,18.2,15.0,30.64,NW,306,0.0,0.0,87,0.00,,CLR,0.00,VWS V14.01,2013-11-13 08:45:00,
2013-11-13 02:46:00,18.2,15.0,30.64,NW,306,0.0,0.0,87,0.00,,CLR,0.00,VWS V14.01,2013-11-13 08:46:00,
2013-11-13 02:47:00,18.2,15.2,30.64,NW,306,0.0,0.0,88,0.00,,CLR,0.00,VWS V14.01,2013-11-13 08:47:00,
2013-11-13 02:48:00,18.2,15.2,30.64,NW,306,0.0,0.0,88,0.00,,CLR,0.00,VWS V14.01,2013-11-13 08:48:00,
2013-11-13 02:49:00,18.2,15.0,30.64,NW,306,0.0,0.0,87,0.00,,CLR,0.00,VWS V14.01,2013-11-13 08:49:00,
2013-11-13 02:51:00,18.2,15.0,30.64,NW,306,0.0,0.0,87,0.00,,CLR,0.00,VWS V14.01,2013-11-13 08:51:00,
2013-11-13 02:52:00,18.2,15.0,30.64,NW,306,0.0,0.0,87,0.00,,CLR,0.00,VWS V14.01,2013-11-13 08:52:00,
2013-11-13 02:53:00,18.2,15.0,30.64,NW,306,0.0,0.0,87,0.00,,CLR,0.00,VWS V14.01,2013-11-13 08:53:00,
2013-11-13 02:54:00,18.2,15.2,30.64,NW,306,0.0,0.0,88,0.00,,CLR,0.00,VWS V14.01,2013-11-13 08:54:00,
2013-11-13 02:56:00,18.2,15.0,30.64,NW,306,0.0,0.0,87,0.00,,CLR,0.00,VWS V14.01,2013-11-13 08:56:00,
2013-11-13 02:58:00,18.2,15.0,30.64,NW,306,0.0,0.0,87,0.00,,CLR,0.00,VWS V14.01,2013-11-13 08:58:00,
2013-11-13 02:59:00,18.2,15.0,30.64,NW,306,0.0,0.0,87,0.00,,CLR,0.00,VWS V14.01,2013-11-13 08:59:00,
2013-11-13 03:02:00,18.2,15.0,30.64,NW,306,0.0,0.0,87,0.00,,CLR,0.00,VWS V14.01,2013-11-13 09:02:00,
2013-11-13 03:03:00,18.2,15.0,30.64,NW,306,0.0,0.0,87,0.00,,CLR,0.00,VWS V14.01,2013-11-13 09:03:00,
2013-11-13 03:04:00,18.2,15.0,30.64,NW,306,0.0,0.0,87,0.00,,CLR,0.00,VWS V14.01,2013-11-13 09:04:00,
2013-11-13 03:07:00,18.0,14.8,30.64,NW,306,0.0,0.0,87,0.00,,CLR,0.00,VWS V14.01,2013-11-13 09:07:00,
2013-11-13 03:09:00,18.0,14.8,30.64,NW,306,0.0,0.0,87,0.00,,CLR,0.00,VWS V14.01,2013-11-13 09:09:00,
2013-11-13 03:10:00,18.0,14.8,30.64,NW,306,0.0,0.0,87,0.00,,CLR,0.00,VWS V14.01,2013-11-13 09:10:00,
2013-11-13 03:11:00,18.0,14.8,30.64,NW,306,0.0,0.0,87,0.00,,CLR,0.00,VWS V14.01,2013-11-13 09:11:00,
2013-11-13 03:12:00,18.0,14.8,30.64,NW,306,0.0,0.0,87,0.00,,CLR,0.00,VWS V14.01,2013-11-13 09:12:00,
2013-11-13 03:13:00,18.0,14.8,30.64,NW,306,0.0,0.0,87,0.00,,CLR,0.00,VWS V14.01,2013-11-13 09:13:00,
2013-11-13 03:14:00,17.9,14.7,30.64,NW,306,0.0,0.0,87,0.00,,CLR,0.00,VWS V14.01,2013-11-13 09:14:00,
2013-11-13 03:16:00,17.9,14.7,30.64,NW,306,0.0,0.0,87,0.00,,CLR,0.00,VWS V14.01,2013-11-13 09:16:00,
2013-11-13 03:17:00,17.9,14.7,30.64,NW,306,0.0,0.0,87,0.00,,CLR,0.00,VWS V14.01,2013-11-13 09:17:00,
2013-11-13 03:19:00,17.9,14.7,30.64,NW,306,0.0,0.0,87,0.00,,CLR,0.00,VWS V14.01,2013-11-13 09:19:00,
2013-11-13 03:21:00,17.9,14.7,30.64,NW,306,0.0,0.0,87,0.00,,CLR,0.00,VWS V14.01,2013-11-13 09:21:00,
2013-11-13 03:22:00,17.9,14.7,30.64,NW,306,0.0,0.0,87,0.00,,CLR,0.00,VWS V14.01,2013-11-13 09:22:00,
2013-11-13 03:24:00,17.9,14.7,30.64,NW,306,0.0,0.0,87,0.00,,CLR,0.00,VWS V14.01,2013-11-13 09:24:00,
2013-11-13 03:27:00,17.9,14.7,30.64,NW,306,0.0,0.0,87,0.00,,CLR,0.00,VWS V14.01,2013-11-13 09:27:00,
2013-11-13 03:28:00,17.9,14.7,30.64,NW,306,0.0,0.0,87,0.00,,CLR,0.00,VWS V14.01,2013-11-13 09:28:00,
2013-11-13 03:29:00,17.7,14.5,30.64,NW,306,0.0,0.0,87,0.00,,CLR,0.00,VWS V14.01,2013-11-13 09:29:00,
2013-11-13 03:30:00,17.7,14.5,30.64,NW,306,0.0,0.0,87,0.00,,CLR,0.00,VWS V14.01,2013-11-13 09:30:00,
2013-11-13 03:32:00,17.7,14.5,30.64,NW,306,0.0,0.0,87,0.00,,CLR,0.00,VWS V14.01,2013-11-13 09:32:00,
2013-11-13 03:33:00,17.7,14.5,30.64,NW,306,0.0,0.0,87,0.00,,CLR,0.00,VWS V14.01,2013-11-13 09:33:00,
2013-11-13 03:34:00,17.7,14.8,30.64,NW,306,0.0,0.0,88,0.00,,CLR,0.00,VWS V14.01,2013-11-13 09:34:00,
2013-11-13 03:35:00,17.7,14.8,30.64,NW,306,0.0,0.0,88,0.00,,CLR,0.00,VWS V14.01,2013-11-13 09:35:00,
2013-11-13 03:37:00,17.9,14.9,30.64,NW,306,0.0,0.0,88,0.00,,CLR,0.00,VWS V14.01,2013-11-13 09:37:00,
2013-11-13 03:38:00,17.9,14.9,30.64,NW,306,0.0,0.0,88,0.00,,CLR,0.00,VWS V14.01,2013-11-13 09:38:00,
2013-11-13 03:40:00,17.9,14.9,30.64,NW,306,0.0,0.0,88,0.00,,CLR,0.00,VWS V14.01,2013-11-13 09:40:00,
2013-11-13 09:00:00,32.6,18.2,30.60,SW,223,4.0,7.0,55,0.00,,OVC037,0.00,VWS V14.01,2013-11-13 15:00:00,
2013-11-13 09:30:00,34.5,17.8,30.59,SSW,208,1.0,11.0,50,0.00,,OVC037,0.00,VWS V14.01,2013-11-13 15:30:00,
2013-11-13 09:57:00,32.3,18.4,30.61,SW,216,4.0,4.0,56,0.00,,,0.00,VWS V14.01,2013-11-13 15:57:00,
2013-11-13 10:00:00,32.6,18.2,30.60,SW,223,4.0,7.0,55,0.00,,CLR,0.00,VWS V14.01,2013-11-13 16:00:00,
2013-11-13 10:02:00,32.6,17.8,30.60,SW,218,5.0,9.0,54,0.00,,CLR,0.00,VWS V14.01,2013-11-13 16:02:00,
2013-11-13 10:03:00,32.6,16.9,30.60,SW,233,5.0,9.0,52,0.00,,CLR,0.00,VWS V14.01,2013-11-13 16:03:00,
2013-11-13 10:07:00,32.8,17.6,30.60,SSW,212,6.0,9.0,53,0.00,,CLR,0.00,VWS V14.01,2013-11-13 16:07:00,
2013-11-13 10:08:00,32.8,17.6,30.60,SW,225,5.0,9.0,53,0.00,,CLR,0.00,VWS V14.01,2013-11-13 16:08:00,
2013-11-13 10:12:00,33.1,17.4,30.60,SW,225,4.0,11.0,52,0.00,,CLR,0.00,VWS V14.01,2013-11-13 16:12:00,
2013-11-13 10:13:00,33.1,17.0,30.60,SW,230,3.0,11.0,51,0.00,,CLR,0.00,VWS V14.01,2013-11-13 16:13:00,
2013-11-13 10:17:00,33.3,17.1,30.60,SSW,193,0.0,11.0,51,0.00,,CLR,0.00,VWS V14.01,2013-11-13 16:17:00,
2013-11-13 10:18:00,33.4,17.2,30.60,SSW,201,1.0,11.0,51,0.00,,CLR,0.00,VWS V14.01,2013-11-13 16:18:00,
2013-11-13 10:22:00,34.2,19.3,30.60,South,179,0.0,11.0,54,0.00,,CLR,0.00,VWS V14.01,2013-11-13 16:22:00,
2013-11-13 10:23:00,34.2,19.3,30.60,South,179,0.0,11.0,54,0.00,,CLR,0.00,VWS V14.01,2013-11-13 16:23:00,
2013-11-13 10:24:00,34.3,19.0,30.60,SW,216,1.0,11.0,53,0.00,,CLR,0.00,VWS V14.01,2013-11-13 16:24:00,
2013-11-13 10:27:00,34.5,17.8,30.60,SSW,211,1.0,11.0,50,0.00,,CLR,0.00,VWS V14.01,2013-11-13 16:27:00,
2013-11-13 10:28:00,34.5,17.8,30.60,SSW,212,1.0,11.0,50,0.00,,CLR,0.00,VWS V14.01,2013-11-13 16:28:00,
2013-11-13 10:29:00,34.5,18.2,30.60,SW,215,1.0,11.0,51,0.00,,CLR,0.00,VWS V14.01,2013-11-13 16:29:00,
2013-11-13 10:30:00,34.5,17.8,30.59,SSW,208,1.0,11.0,50,0.00,,CLR,0.00,VWS V14.01,2013-11-13 16:30:00,
2013-11-13 10:33:00,34.3,18.1,30.59,South,191,1.0,8.0,51,0.00,,CLR,0.00,VWS V14.01,2013-11-13 16:33:00,
2013-11-13 10:34:00,34.3,17.6,30.59,SW,219,10.0,12.0,50,0.00,,CLR,0.00,VWS V14.01,2013-11-13 16:34:00,
2013-11-13 10:38:00,34.3,18.5,30.59,SSW,198,4.0,12.0,52,0.00,,CLR,0.00,VWS V14.01,2013-11-13 16:38:00,
2013-11-13 10:39:00,34.5,18.2,30.59,SSW,208,3.0,12.0,51,0.00,,CLR,0.00,VWS V14.01,2013-11-13 16:39:00,
2013-11-13 10:43:00,34.9,19.5,30.59,SSW,195,1.0,12.0,53,0.00,,CLR,0.00,VWS V14.01,2013-11-13 16:43:00,
2013-11-13 10:44:00,35.1,19.3,30.59,South,184,0.0,12.0,52,0.00,,CLR,0.00,VWS V14.01,2013-11-13 16:44:00,
2013-11-13 10:48:00,35.7,19.4,30.59,SW,219,5.0,12.0,51,0.00,,CLR,0.00,VWS V14.01,2013-11-13 16:48:00,
2013-11-13 10:49:00,35.5,18.7,30.59,SW,215,3.0,12.0,50,0.00,,CLR,0.00,VWS V14.01,2013-11-13 16:49:00,
2013-11-13 10:53:00,35.4,18.1,30.59,South,186,0.0,12.0,49,0.00,,CLR,0.00,VWS V14.01,2013-11-13 16:53:00,
2013-11-13 10:54:00,35.4,18.1,30.59,South,186,2.0,12.0,49,0.00,,CLR,0.00,VWS V14.01,2013-11-13 16:54:00,
2013-11-13 10:55:00,35.4,18.1,30.59,South,181,0.0,12.0,49,0.00,,CLR,0.00,VWS V14.01,2013-11-13 16:55:00,
2013-11-13 10:58:00,35.5,18.2,30.59,South,182,0.0,12.0,49,0.00,,CLR,0.00,VWS V14.01,2013-11-13 16:58:00,
2013-11-13 10:59:00,35.5,18.2,30.59,South,187,2.0,12.0,49,0.00,,CLR,0.00,VWS V14.01,2013-11-13 16:59:00,
2013-11-13 11:00:00,35.5,17.3,30.58,South,175,5.0,12.0,47,0.00,,CLR,0.00,VWS V14.01,2013-11-13 17:00:00,
2013-11-13 11:04:00,35.5,16.8,30.58,SSW,198,3.0,12.0,46,0.00,,CLR,0.00,VWS V14.01,2013-11-13 17:04:00,
2013-11-13 11:05:00,35.5,16.8,30.58,SSW,198,1.0,12.0,46,0.00,,CLR,0.00,VWS V14.01,2013-11-13 17:05:00,
2013-11-13 11:09:00,35.4,16.7,30.58,South,173,0.0,12.0,46,0.00,,CLR,0.00,VWS V14.01,2013-11-13 17:09:00,
2013-11-13 11:10:00,35.5,16.8,30.58,SSW,194,0.0,12.0,46,0.00,,CLR,0.00,VWS V14.01,2013-11-13 17:10:00,
2013-11-13 11:11:00,35.7,18.0,30.58,SSW,195,0.0,12.0,48,0.00,,CLR,0.00,VWS V14.01,2013-11-13 17:11:00,
2013-11-13 11:14:00,35.8,15.5,30.58,SW,235,5.0,12.0,43,0.00,,CLR,0.00,VWS V14.01,2013-11-13 17:14:00,
2013-11-13 11:15:00,35.8,16.0,30.57,SW,223,4.0,12.0,44,0.00,,CLR,0.00,VWS V14.01,2013-11-13 17:15:00,
2013-11-13 11:16:00,35.9,16.6,30.57,SW,215,5.0,12.0,45,0.00,,CLR,0.00,VWS V14.01,2013-11-13 17:16:00,
2013-11-13 11:19:00,35.8,16.5,30.57,SSW,210,0.0,12.0,45,0.00,,CLR,0.00,VWS V14.01,2013-11-13 17:19:00,
2013-11-13 11:20:00,35.8,17.1,30.57,SW,214,6.0,12.0,46,0.00,,CLR,0.00,VWS V14.01,2013-11-13 17:20:00,
2013-11-13 11:21:00,35.8,17.1,30.57,SW,214,4.0,12.0,46,0.00,,CLR,0.00,VWS V14.01,2013-11-13 17:21:00,
2013-11-13 11:24:00,35.9,17.6,30.57,South,187,2.0,12.0,47,0.00,,CLR,0.00,VWS V14.01,2013-11-13 17:24:00,
2013-11-13 11:25:00,36.1,17.8,30.57,SW,219,4.0,12.0,47,0.00,,CLR,0.00,VWS V14.01,2013-11-13 17:25:00,
2013-11-13 11:26:00,36.2,17.4,30.57,SW,217,7.0,12.0,46,0.00,,CLR,0.00,VWS V14.01,2013-11-13 17:26:00,
2013-11-13 11:27:00,36.2,17.4,30.57,WSW,244,5.0,12.0,46,0.00,,CLR,0.00,VWS V14.01,2013-11-13 17:27:00,
2013-11-13 11:29:00,36.2,16.9,30.57,SSW,193,7.0,12.0,45,0.00,,CLR,0.00,VWS V14.01,2013-11-13 17:29:00,
2013-11-13 11:30:00,36.4,17.6,30.56,SSW,201,1.0,12.0,46,0.00,,CLR,0.00,VWS V14.01,2013-11-13 17:30:00,
2013-11-13 11:31:00,36.7,18.9,30.56,SSW,194,7.0,11.0,48,0.00,,CLR,0.00,VWS V14.01,2013-11-13 17:31:00,
2013-11-13 11:32:00,36.8,19.0,30.56,SSW,200,9.0,11.0,48,0.00,,CLR,0.00,VWS V14.01,2013-11-13 17:32:00,
2013-11-13 11:34:00,36.8,17.5,30.56,SSW,207,5.0,11.0,45,0.00,,CLR,0.00,VWS V14.01,2013-11-13 17:34:00,
2013-11-13 11:35:00,36.9,18.1,30.56,SW,221,4.0,11.0,46,0.00,,CLR,0.00,VWS V14.01,2013-11-13 17:35:00,
2013-11-13 11:37:00,37.1,18.2,30.56,South,171,10.0,12.0,46,0.00,,CLR,0.00,VWS V14.01,2013-11-13 17:37:00,
2013-11-13 11:39:00,37.1,17.7,30.56,South,175,0.0,12.0,45,0.00,,CLR,0.00,VWS V14.01,2013-11-13 17:39:00,
2013-11-13 11:40:00,37.1,17.7,30.56,South,181,0.0,12.0,45,0.00,,CLR,0.00,VWS V14.01,2013-11-13 17:40:00,
2013-11-13 11:42:00,37.1,16.7,30.56,SSW,196,5.0,13.0,43,0.00,,CLR,0.00,VWS V14.01,2013-11-13 17:42:00,
2013-11-13 11:44:00,36.9,17.0,30.54,South,191,2.0,13.0,44,0.00,,CLR,0.00,VWS V14.01,2013-11-13 17:44:00,
2013-11-13 11:45:00,36.9,17.0,30.54,SE,128,0.0,13.0,44,0.00,,CLR,0.00,VWS V14.01,2013-11-13 17:45:00,
2013-11-13 11:47:00,37.1,17.7,30.54,South,186,0.0,13.0,45,0.00,,CLR,0.00,VWS V14.01,2013-11-13 17:47:00,
2013-11-13 11:48:00,37.1,16.7,30.54,SW,236,1.0,13.0,43,0.00,,CLR,0.00,VWS V14.01,2013-11-13 17:48:00,
2013-11-13 11:49:00,37.1,17.2,30.54,SSW,196,9.0,13.0,44,0.00,,CLR,0.00,VWS V14.01,2013-11-13 17:49:00,
2013-11-13 11:50:00,37.1,17.2,30.54,WSW,244,6.0,13.0,44,0.00,,CLR,0.00,VWS V14.01,2013-11-13 17:50:00,
2013-11-13 11:51:00,36.9,16.5,30.54,SW,233,5.0,13.0,43,0.00,,CLR,0.00,VWS V14.01,2013-11-13 17:51:00,
2013-11-13 11:53:00,37.1,16.1,30.54,SW,225,5.0,13.0,42,0.00,,CLR,0.00,VWS V14.01,2013-11-13 17:53:00,
2013-11-13 11:54:00,37.1,16.7,30.54,SSW,204,6.0,13.0,43,0.00,,CLR,0.00,VWS V14.01,2013-11-13 17:54:00,
2013-11-13 11:55:00,37.1,16.7,30.54,SW,227,4.0,13.0,43,0.00,,CLR,0.00,VWS V14.01,2013-11-13 17:55:00,
2013-11-13 11:56:00,37.1,16.7,30.54,SSW,213,5.0,13.0,43,0.00,,CLR,0.00,VWS V14.01,2013-11-13 17:56:00,
2013-11-13 11:58:00,36.9,16.0,30.54,SW,229,5.0,13.0,42,0.00,,CLR,0.00,VWS V14.01,2013-11-13 17:58:00,
2013-11-13 11:59:00,36.9,15.4,30.54,WSW,237,10.0,13.0,41,0.00,,CLR,0.00,VWS V14.01,2013-11-13 17:59:00,
2013-11-13 12:00:00,36.9,15.4,30.53,SW,229,1.0,13.0,41,0.00,,CLR,0.00,VWS V14.01,2013-11-13 18:00:00,
2013-11-13 12:01:00,37.1,15.6,30.53,WSW,238,5.0,7.0,41,0.00,,CLR,0.00,VWS V14.01,2013-11-13 18:01:00,
2013-11-13 12:03:00,37.4,17.0,30.53,SSW,210,1.0,7.0,43,0.00,,CLR,0.00,VWS V14.01,2013-11-13 18:03:00,
2013-11-13 12:04:00,37.5,17.0,30.53,WSW,247,0.0,7.0,43,0.00,,CLR,0.00,VWS V14.01,2013-11-13 18:04:00,
2013-11-13 12:05:00,37.7,17.2,30.53,SW,236,0.0,7.0,43,0.00,,CLR,0.00,VWS V14.01,2013-11-13 18:05:00,
2013-11-13 12:06:00,37.8,17.3,30.53,South,178,1.0,7.0,43,0.00,,CLR,0.00,VWS V14.01,2013-11-13 18:06:00,
2013-11-13 12:08:00,38.1,17.0,30.53,SW,223,3.0,10.0,42,0.00,,CLR,0.00,VWS V14.01,2013-11-13 18:08:00,
2013-11-13 12:09:00,38.2,17.1,30.53,WSW,242,6.0,10.0,42,0.00,,CLR,0.00,VWS V14.01,2013-11-13 18:09:00,
2013-11-13 12:10:00,38.4,16.2,30.53,SSW,197,4.0,10.0,40,0.00,,CLR,0.00,VWS V14.01,2013-11-13 18:10:00,
2013-11-13 12:11:00,38.4,16.2,30.53,SSW,206,4.0,10.0,40,0.00,,CLR,0.00,VWS V14.01,2013-11-13 18:11:00,
2013-11-13 12:13:00,38.7,17.0,30.53,South,184,4.0,10.0,41,0.00,,CLR,0.00,VWS V14.01,2013-11-13 18:13:00,
2013-11-13 12:14:00,38.7,17.0,30.53,SSE,167,2.0,10.0,41,0.00,,CLR,0.00,VWS V14.01,2013-11-13 18:14:00,
2013-11-13 12:15:00,38.5,16.9,30.52,SW,219,0.0,10.0,41,0.00,,CLR,0.00,VWS V14.01,2013-11-13 18:15:00,
2013-11-13 12:16:00,38.5,18.0,30.52,SW,216,0.0,10.0,43,0.00,,CLR,0.00,VWS V14.01,2013-11-13 18:16:00,
2013-11-13 12:19:00,38.5,17.4,30.52,SSE,155,0.0,13.0,42,0.00,,CLR,0.00,VWS V14.01,2013-11-13 18:19:00,
2013-11-13 12:20:00,38.5,17.4,30.52,SW,216,0.0,13.0,42,0.00,,CLR,0.00,VWS V14.01,2013-11-13 18:20:00,
2013-11-13 12:21:00,38.5,18.0,30.52,SW,217,0.0,13.0,43,0.00,,CLR,0.00,VWS V14.01,2013-11-13 18:21:00,
2013-11-13 12:22:00,38.5,18.0,30.52,SSE,153,0.0,13.0,43,0.00,,CLR,0.00,VWS V14.01,2013-11-13 18:22:00,
2013-11-13 12:24:00,38.7,18.1,30.52,South,188,5.0,13.0,43,0.00,,CLR,0.00,VWS V14.01,2013-11-13 18:24:00,
2013-11-13 12:25:00,38.7,18.1,30.52,SSW,192,0.0,13.0,43,0.00,,CLR,0.00,VWS V14.01,2013-11-13 18:25:00,
2013-11-13 12:26:00,38.7,18.1,30.52,SSW,202,0.0,13.0,43,0.00,,CLR,0.00,VWS V14.01,2013-11-13 18:26:00,
2013-11-13 12:27:00,38.8,18.2,30.52,SSW,206,0.0,13.0,43,0.00,,CLR,0.00,VWS V14.01,2013-11-13 18:27:00,
2013-11-13 12:29:00,38.8,16.6,30.52,SSW,212,1.0,13.0,40,0.00,,CLR,0.00,VWS V14.01,2013-11-13 18:29:00,
2013-11-13 12:30:00,38.8,16.6,30.51,SSW,206,0.0,13.0,40,0.00,,CLR,0.00,VWS V14.01,2013-11-13 18:30:00,
2013-11-13 12:31:00,39.0,17.3,30.51,SSW,197,1.0,2.0,41,0.00,,CLR,0.00,VWS V14.01,2013-11-13 18:31:00,
2013-11-13 12:32:00,39.0,16.7,30.51,South,179,6.0,13.0,40,0.00,,CLR,0.00,VWS V14.01,2013-11-13 18:32:00,
2013-11-13 12:34:00,38.8,18.2,30.51,SSW,202,5.0,13.0,43,0.00,,CLR,0.00,VWS V14.01,2013-11-13 18:34:00,
2013-11-13 12:35:00,38.7,17.0,30.51,SSW,202,1.0,13.0,41,0.00,,CLR,0.00,VWS V14.01,2013-11-13 18:35:00,
2013-11-13 12:36:00,38.7,17.6,30.51,SSW,206,2.0,13.0,42,0.00,,CLR,0.00,VWS V14.01,2013-11-13 18:36:00,
2013-11-13 12:37:00,38.7,17.0,30.51,SSW,193,9.0,13.0,41,0.00,,CLR,0.00,VWS V14.01,2013-11-13 18:37:00,
2013-11-13 12:39:00,38.5,16.9,30.51,SSW,194,6.0,13.0,41,0.00,,CLR,0.00,VWS V14.01,2013-11-13 18:39:00,
2013-11-13 12:40:00,38.7,17.6,30.51,SSW,192,0.0,13.0,42,0.00,,CLR,0.00,VWS V14.01,2013-11-13 18:40:00,
2013-11-13 12:41:00,38.7,18.7,30.51,SSW,197,0.0,13.0,44,0.00,,CLR,0.00,VWS V14.01,2013-11-13 18:41:00,
2013-11-13 12:42:00,38.8,17.1,30.51,SSW,194,11.0,16.0,41,0.00,,CLR,0.00,VWS V14.01,2013-11-13 18:42:00,
2013-11-13 12:44:00,38.5,16.3,30.50,SW,232,5.0,16.0,40,0.00,,CLR,0.00,VWS V14.01,2013-11-13 18:44:00,
2013-11-13 12:46:00,38.5,15.7,30.50,WSW,248,5.0,16.0,39,0.00,,CLR,0.00,VWS V14.01,2013-11-13 18:46:00,
2013-11-13 12:47:00,38.7,15.9,30.50,SW,219,8.0,16.0,39,0.00,,CLR,0.00,VWS V14.01,2013-11-13 18:47:00,
2013-11-13 12:49:00,38.8,16.6,30.50,South,186,1.0,16.0,40,0.00,,CLR,0.00,VWS V14.01,2013-11-13 18:49:00,
2013-11-13 12:51:00,38.8,16.6,30.50,South,190,8.0,16.0,40,0.00,,CLR,0.00,VWS V14.01,2013-11-13 18:51:00,
2013-11-13 12:53:00,38.7,16.5,30.50,SSW,198,7.0,16.0,40,0.00,,CLR,0.00,VWS V14.01,2013-11-13 18:53:00,
2013-11-13 12:54:00,38.8,17.1,30.50,SSW,192,9.0,16.0,41,0.00,,CLR,0.00,VWS V14.01,2013-11-13 18:54:00,
2013-11-13 12:56:00,38.8,17.1,30.50,South,180,2.0,16.0,41,0.00,,CLR,0.00,VWS V14.01,2013-11-13 18:56:00,
2013-11-13 12:58:00,39.0,17.3,30.50,SSW,195,11.0,16.0,41,0.00,,CLR,0.00,VWS V14.01,2013-11-13 18:58:00,
2013-11-13 13:00:00,39.0,17.9,30.49,SSW,195,1.0,16.0,42,0.00,,CLR,0.00,VWS V14.01,2013-11-13 19:00:00,
2013-11-13 13:01:00,39.1,18.0,30.49,SSW,193,1.0,13.0,42,0.00,,CLR,0.00,VWS V14.01,2013-11-13 19:01:00,
2013-11-13 13:02:00,39.2,17.5,30.49,SW,225,8.0,14.0,41,0.00,,CLR,0.00,VWS V14.01,2013-11-13 19:02:00,
2013-11-13 13:03:00,39.2,16.9,30.49,South,184,6.0,14.0,40,0.00,,CLR,0.00,VWS V14.01,2013-11-13 19:03:00,
2013-11-13 13:05:00,39.1,15.6,30.49,South,180,9.0,14.0,38,0.00,,CLR,0.00,VWS V14.01,2013-11-13 19:05:00,
2013-11-13 13:06:00,39.0,16.2,30.49,South,189,6.0,14.0,39,0.00,,CLR,0.00,VWS V14.01,2013-11-13 19:06:00,
2013-11-13 13:08:00,39.0,16.7,30.49,South,185,1.0,14.0,40,0.00,,CLR,0.00,VWS V14.01,2013-11-13 19:08:00,
2013-11-13 13:11:00,39.5,16.6,30.49,SSW,192,10.0,14.0,39,0.00,,CLR,0.00,VWS V14.01,2013-11-13 19:11:00,
2013-11-13 13:13:00,39.5,17.2,30.49,SW,236,5.0,14.0,40,0.00,,CLR,0.00,VWS V14.01,2013-11-13 19:13:00,
2013-11-13 13:16:00,39.7,18.0,30.48,SSW,211,1.0,14.0,41,0.00,,CLR,0.00,VWS V14.01,2013-11-13 19:16:00,
2013-11-13 13:17:00,39.8,17.5,30.48,SSW,211,3.0,14.0,40,0.00,,CLR,0.00,VWS V14.01,2013-11-13 19:17:00,
2013-11-13 13:18:00,39.8,17.5,30.48,SSW,213,12.0,14.0,40,0.00,,CLR,0.00,VWS V14.01,2013-11-13 19:18:00,
2013-11-13 13:19:00,39.8,16.9,30.48,SSW,199,4.0,14.0,39,0.00,,CLR,0.00,VWS V14.01,2013-11-13 19:19:00,
2013-11-13 13:21:00,39.7,16.2,30.48,South,180,0.0,14.0,38,0.00,,CLR,0.00,VWS V14.01,2013-11-13 19:21:00,
2013-11-13 13:22:00,39.8,15.7,30.48,WSW,239,9.0,14.0,37,0.00,,CLR,0.00,VWS V14.01,2013-11-13 19:22:00,
2013-11-13 13:23:00,39.7,15.6,30.48,SW,217,5.0,14.0,37,0.00,,CLR,0.00,VWS V14.01,2013-11-13 19:23:00,
2013-11-13 13:24:00,39.7,15.6,30.48,South,186,5.0,14.0,37,0.00,,CLR,0.00,VWS V14.01,2013-11-13 19:24:00,
2013-11-13 13:26:00,39.7,16.2,30.48,SW,220,5.0,14.0,38,0.00,,CLR,0.00,VWS V14.01,2013-11-13 19:26:00,
2013-11-13 13:27:00,39.7,16.2,30.48,SW,229,6.0,14.0,38,0.00,,CLR,0.00,VWS V14.01,2013-11-13 19:27:00,
2013-11-13 13:28:00,39.7,16.2,30.48,SW,235,4.0,14.0,38,0.00,,CLR,0.00,VWS V14.01,2013-11-13 19:28:00,
2013-11-13 13:29:00,39.8,17.5,30.47,SW,215,2.0,14.0,40,0.00,,CLR,0.00,VWS V14.01,2013-11-13 19:29:00,
2013-11-13 13:30:00,39.8,16.9,30.47,South,190,0.0,14.0,39,0.00,,CLR,0.00,VWS V14.01,2013-11-13 19:30:00,
2013-11-13 13:32:00,39.8,16.3,30.47,SSW,210,5.0,16.0,38,0.00,,CLR,0.00,VWS V14.01,2013-11-13 19:32:00,
2013-11-13 13:33:00,40.0,16.5,30.47,SW,231,10.0,16.0,38,0.00,,CLR,0.00,VWS V14.01,2013-11-13 19:33:00,
2013-11-13 13:34:00,40.0,16.5,30.47,SSW,212,10.0,16.0,38,0.00,,CLR,0.00,VWS V14.01,2013-11-13 19:34:00,
2013-11-13 13:37:00,39.8,15.7,30.47,South,180,6.0,16.0,37,0.00,,CLR,0.00,VWS V14.01,2013-11-13 19:37:00,
2013-11-13 13:38:00,39.8,15.7,30.47,SW,221,7.0,16.0,37,0.00,,CLR,0.00,VWS V14.01,2013-11-13 19:38:00,
2013-11-13 13:39:00,39.8,16.3,30.47,South,188,4.0,16.0,38,0.00,,CLR,0.00,VWS V14.01,2013-11-13 19:39:00,
2013-11-13 13:42:00,40.0,17.1,30.47,South,191,0.0,16.0,39,0.00,,CLR,0.00,VWS V14.01,2013-11-13 19:42:00,
2013-11-13 13:43:00,40.0,17.1,30.47,SSW,194,0.0,16.0,39,0.00,,CLR,0.00,VWS V14.01,2013-11-13 19:43:00,
2013-11-13 13:44:00,40.2,17.2,30.47,SE,138,1.0,16.0,39,0.00,,CLR,0.00,VWS V14.01,2013-11-13 19:44:00,
2013-11-13 13:45:00,40.4,16.8,30.46,SSW,212,4.0,16.0,38,0.00,,CLR,0.00,VWS V14.01,2013-11-13 19:45:00,
2013-11-13 13:47:00,40.5,16.3,30.46,SSW,192,10.0,16.0,37,0.00,,CLR,0.00,VWS V14.01,2013-11-13 19:47:00,
2013-11-13 13:48:00,40.4,15.6,30.46,SW,219,7.0,16.0,36,0.00,,CLR,0.00,VWS V14.01,2013-11-13 19:48:00,
2013-11-13 13:49:00,40.4,15.6,30.46,South,182,6.0,16.0,36,0.00,,CLR,0.00,VWS V14.01,2013-11-13 19:49:00,
2013-11-13 13:50:00,40.4,15.6,30.46,SSW,206,10.0,16.0,36,0.00,,CLR,0.00,VWS V14.01,2013-11-13 19:50:00,
2013-11-13 13:52:00,40.4,16.2,30.46,SSW,205,10.0,16.0,37,0.00,,CLR,0.00,VWS V14.01,2013-11-13 19:52:00,
2013-11-13 13:53:00,40.4,15.6,30.46,SW,234,6.0,16.0,36,0.00,,CLR,0.00,VWS V14.01,2013-11-13 19:53:00,
2013-11-13 13:54:00,40.4,16.8,30.46,South,184,9.0,16.0,38,0.00,,CLR,0.00,VWS V14.01,2013-11-13 19:54:00,
2013-11-13 13:55:00,40.4,16.8,30.46,SSW,209,9.0,16.0,38,0.00,,CLR,0.00,VWS V14.01,2013-11-13 19:55:00,
2013-11-13 13:57:00,40.2,17.2,30.46,SW,217,9.0,16.0,39,0.00,,CLR,0.00,VWS V14.01,2013-11-13 19:57:00,
2013-11-13 13:58:00,40.4,17.4,30.46,SSW,202,9.0,16.0,39,0.00,,CLR,0.00,VWS V14.01,2013-11-13 19:58:00,
2013-11-13 13:59:00,40.4,17.4,30.46,SSW,207,3.0,16.0,39,0.00,,CLR,0.00,VWS V14.01,2013-11-13 19:59:00,
2013-11-13 14:00:00,40.4,17.4,30.45,South,191,2.0,16.0,39,0.00,,CLR,0.00,VWS V14.01,2013-11-13 20:00:00,
2013-11-13 14:01:00,40.4,17.4,30.45,SSW,202,8.0,13.0,39,0.00,,CLR,0.00,VWS V14.01,2013-11-13 20:01:00,
2013-11-13 14:02:00,40.2,17.2,30.45,SSW,197,10.0,13.0,39,0.00,,CLR,0.00,VWS V14.01,2013-11-13 20:02:00,
2013-11-13 14:04:00,40.4,17.4,30.45,South,178,1.0,13.0,39,0.00,,CLR,0.00,VWS V14.01,2013-11-13 20:04:00,
2013-11-13 14:05:00,40.4,17.4,30.45,SSW,198,1.0,13.0,39,0.00,,CLR,0.00,VWS V14.01,2013-11-13 20:05:00,
2013-11-13 14:06:00,40.5,18.1,30.45,SW,215,2.0,13.0,40,0.00,,CLR,0.00,VWS V14.01,2013-11-13 20:06:00,
2013-11-13 14:08:00,40.7,17.7,30.45,South,180,0.0,13.0,39,0.00,,CLR,0.00,VWS V14.01,2013-11-13 20:08:00,
2013-11-13 14:09:00,40.8,18.4,30.45,SW,218,12.0,13.0,40,0.00,,CLR,0.00,VWS V14.01,2013-11-13 20:09:00,
2013-11-13 14:10:00,40.8,18.4,30.45,South,185,12.0,13.0,40,0.00,,CLR,0.00,VWS V14.01,2013-11-13 20:10:00,
2013-11-13 14:11:00,40.7,17.1,30.45,South,180,10.0,13.0,38,0.00,,CLR,0.00,VWS V14.01,2013-11-13 20:11:00,
2013-11-13 14:13:00,40.5,16.9,30.45,SSW,198,1.0,13.0,38,0.00,,CLR,0.00,VWS V14.01,2013-11-13 20:13:00,
2013-11-13 14:14:00,40.5,16.9,30.44,South,188,6.0,13.0,38,0.00,,CLR,0.00,VWS V14.01,2013-11-13 20:14:00,
2013-11-13 14:15:00,40.5,16.9,30.44,South,181,5.0,13.0,38,0.00,,CLR,0.00,VWS V14.01,2013-11-13 20:15:00,
2013-11-13 14:16:00,40.5,17.5,30.44,SSW,207,6.0,13.0,39,0.00,,CLR,0.00,VWS V14.01,2013-11-13 20:16:00,
2013-11-13 14:18:00,40.5,16.3,30.44,SW,223,6.0,14.0,37,0.00,,CLR,0.00,VWS V14.01,2013-11-13 20:18:00,
2013-11-13 14:20:00,40.4,16.2,30.44,WSW,238,5.0,14.0,37,0.00,,CLR,0.00,VWS V14.01,2013-11-13 20:20:00,
2013-11-13 14:21:00,40.4,15.6,30.44,SSW,198,0.0,14.0,36,0.00,,CLR,0.00,VWS V14.01,2013-11-13 20:21:00,
2013-11-13 14:23:00,40.5,16.3,30.44,SSW,206,4.0,14.0,37,0.00,,CLR,0.00,VWS V14.01,2013-11-13 20:23:00,
2013-11-13 14:25:00,40.7,16.5,30.44,SW,218,4.0,14.0,37,0.00,,CLR,0.00,VWS V14.01,2013-11-13 20:25:00,
2013-11-13 14:26:00,40.7,16.5,30.44,South,190,4.0,14.0,37,0.00,,CLR,0.00,VWS V14.01,2013-11-13 20:26:00,
2013-11-13 14:28:00,40.7,16.5,30.44,SSW,209,3.0,14.0,37,0.00,,CLR,0.00,VWS V14.01,2013-11-13 20:28:00,
2013-11-13 14:30:00,40.7,16.5,30.44,SSW,209,12.0,14.0,37,0.00,,CLR,0.00,VWS V14.01,2013-11-13 20:30:00,
2013-11-13 14:31:00,40.5,16.3,30.44,SSW,197,7.0,13.0,37,0.00,,CLR,0.00,VWS V14.01,2013-11-13 20:31:00,
2013-11-13 14:33:00,40.5,16.9,30.44,South,185,0.0,13.0,38,0.00,,CLR,0.00,VWS V14.01,2013-11-13 20:33:00,
2013-11-13 14:35:00,40.7,17.1,30.44,South,175,0.0,13.0,38,0.00,,CLR,0.00,VWS V14.01,2013-11-13 20:35:00,
2013-11-13 14:36:00,40.7,16.5,30.44,SSW,205,5.0,13.0,37,0.00,,CLR,0.00,VWS V14.01,2013-11-13 20:36:00,
2013-11-13 14:38:00,40.7,15.8,30.44,South,180,6.0,13.0,36,0.00,,CLR,0.00,VWS V14.01,2013-11-13 20:38:00,
2013-11-13 14:40:00,40.7,15.8,30.44,South,185,0.0,13.0,36,0.00,,CLR,0.00,VWS V14.01,2013-11-13 20:40:00,
2013-11-13 14:41:00,40.8,16.6,30.44,SSW,207,7.0,13.0,37,0.00,,CLR,0.00,VWS V14.01,2013-11-13 20:41:00,
2013-11-13 14:42:00,40.8,15.9,30.44,SSW,211,5.0,13.0,36,0.00,,CLR,0.00,VWS V14.01,2013-11-13 20:42:00,
2013-11-13 14:43:00,41.0,16.7,30.44,SW,220,2.0,13.0,37,0.00,,CLR,0.00,VWS V14.01,2013-11-13 20:43:00,
2013-11-13 14:45:00,41.0,16.1,30.43,SSW,192,2.0,13.0,36,0.00,,CLR,0.00,VWS V14.01,2013-11-13 20:45:00,
2013-11-13 14:46:00,41.1,16.8,30.43,SSW,197,5.0,13.0,37,0.00,,CLR,0.00,VWS V14.01,2013-11-13 20:46:00,
2013-11-13 14:47:00,41.1,16.2,30.43,SSW,193,5.0,13.0,36,0.00,,CLR,0.00,VWS V14.01,2013-11-13 20:47:00,
2013-11-13 14:49:00,41.1,16.2,30.43,South,187,0.0,13.0,36,0.00,,CLR,0.00,VWS V14.01,2013-11-13 20:49:00,
2013-11-13 14:50:00,41.0,15.5,30.43,SW,216,5.0,16.0,35,0.00,,CLR,0.00,VWS V14.01,2013-11-13 20:50:00,
2013-11-13 14:51:00,41.0,15.5,30.43,SSW,204,9.0,16.0,35,0.00,,CLR,0.00,VWS V14.01,2013-11-13 20:51:00,
2013-11-13 14:52:00,40.8,15.3,30.43,SW,215,4.0,16.0,35,0.00,,CLR,0.00,VWS V14.01,2013-11-13 20:52:00,
2013-11-13 14:54:00,40.8,15.9,30.43,South,190,0.0,16.0,36,0.00,,CLR,0.00,VWS V14.01,2013-11-13 20:54:00,
2013-11-13 14:56:00,41.0,16.1,30.43,SSW,198,2.0,16.0,36,0.00,,CLR,0.00,VWS V14.01,2013-11-13 20:56:00,
2013-11-13 14:57:00,41.0,15.5,30.43,SSW,196,4.0,16.0,35,0.00,,CLR,0.00,VWS V14.01,2013-11-13 20:57:00,
2013-11-13 14:59:00,41.0,15.5,30.43,SW,215,4.0,16.0,35,0.00,,CLR,0.00,VWS V14.01,2013-11-13 20:59:00,
2013-11-13 15:00:00,41.1,15.6,30.42,SSE,163,9.0,16.0,35,0.00,,CLR,0.00,VWS V14.01,2013-11-13 21:00:00,
2013-11-13 15:01:00,41.1,15.6,30.42,South,186,10.0,10.0,35,0.00,,CLR,0.00,VWS V14.01,2013-11-13 21:01:00,
2013-11-13 15:02:00,41.0,15.5,30.42,South,178,0.0,12.0,35,0.00,,CLR,0.00,VWS V14.01,2013-11-13 21:02:00,
2013-11-13 15:03:00,41.0,14.8,30.42,South,175,2.0,14.0,34,0.00,,CLR,0.00,VWS V14.01,2013-11-13 21:03:00,
2013-11-13 15:04:00,41.0,14.8,30.42,ESE,119,1.0,14.0,34,0.00,,CLR,0.00,VWS V14.01,2013-11-13 21:04:00,
2013-11-13 15:06:00,40.8,14.6,30.42,SSW,198,1.0,14.0,34,0.00,,CLR,0.00,VWS V14.01,2013-11-13 21:06:00,
2013-11-13 15:07:00,40.8,14.6,30.42,SSW,203,2.0,14.0,34,0.00,,CLR,0.00,VWS V14.01,2013-11-13 21:07:00,
2013-11-13 15:08:00,40.8,14.6,30.42,SSW,212,0.0,14.0,34,0.00,,CLR,0.00,VWS V14.01,2013-11-13 21:08:00,
2013-11-13 15:09:00,40.8,15.3,30.42,SW,236,2.0,14.0,35,0.00,,CLR,0.00,VWS V14.01,2013-11-13 21:09:00,
2013-11-13 15:10:00,41.0,15.5,30.42,SSW,213,7.0,14.0,35,0.00,,CLR,0.00,VWS V14.01,2013-11-13 21:10:00,
2013-11-13 15:11:00,41.0,15.5,30.42,SW,226,1.0,14.0,35,0.00,,CLR,0.00,VWS V14.01,2013-11-13 21:11:00,
2013-11-13 15:12:00,41.0,15.5,30.42,South,181,1.0,14.0,35,0.00,,CLR,0.00,VWS V14.01,2013-11-13 21:12:00,
2013-11-13 15:13:00,41.0,15.5,30.42,SSW,194,10.0,14.0,35,0.00,,CLR,0.00,VWS V14.01,2013-11-13 21:13:00,
2013-11-13 15:14:00,41.1,15.6,30.42,SSW,198,1.0,14.0,35,0.00,,CLR,0.00,VWS V14.01,2013-11-13 21:14:00,
2013-11-13 15:15:00,41.1,16.2,30.42,South,182,1.0,14.0,36,0.00,,CLR,0.00,VWS V14.01,2013-11-13 21:15:00,
2013-11-13 15:16:00,41.1,15.6,30.42,SW,215,3.0,14.0,35,0.00,,CLR,0.00,VWS V14.01,2013-11-13 21:16:00,
2013-11-13 15:17:00,41.1,15.6,30.42,SSW,205,1.0,14.0,35,0.00,,CLR,0.00,VWS V14.01,2013-11-13 21:17:00,
2013-11-13 15:18:00,41.1,15.6,30.42,South,188,0.0,14.0,35,0.00,,CLR,0.00,VWS V14.01,2013-11-13 21:18:00,
2013-11-13 15:19:00,41.1,15.6,30.42,South,172,11.0,14.0,35,0.00,,CLR,0.00,VWS V14.01,2013-11-13 21:19:00,
2013-11-13 15:20:00,41.0,14.8,30.42,SSW,197,6.0,14.0,34,0.00,,CLR,0.00,VWS V14.01,2013-11-13 21:20:00,
2013-11-13 15:21:00,41.0,15.5,30.42,South,169,11.0,14.0,35,0.00,,CLR,0.00,VWS V14.01,2013-11-13 21:21:00,
2013-11-13 15:23:00,41.0,15.5,30.42,South,186,1.0,14.0,35,0.00,,CLR,0.00,VWS V14.01,2013-11-13 21:23:00,
2013-11-13 15:24:00,40.8,15.3,30.42,South,186,2.0,14.0,35,0.00,,CLR,0.00,VWS V14.01,2013-11-13 21:24:00,
2013-11-13 15:25:00,40.8,14.6,30.42,SSW,195,3.0,14.0,34,0.00,,CLR,0.00,VWS V14.01,2013-11-13 21:25:00,
2013-11-13 15:26:00,40.8,15.3,30.42,SSW,196,6.0,15.0,35,0.00,,CLR,0.00,VWS V14.01,2013-11-13 21:26:00,
2013-11-13 15:28:00,40.7,14.5,30.42,SSE,167,4.0,15.0,34,0.00,,CLR,0.00,VWS V14.01,2013-11-13 21:28:00,
2013-11-13 15:29:00,40.7,15.2,30.42,SSW,208,10.0,15.0,35,0.00,,CLR,0.00,VWS V14.01,2013-11-13 21:29:00,
2013-11-13 15:30:00,40.7,15.2,30.41,SW,215,4.0,15.0,35,0.00,,CLR,0.00,VWS V14.01,2013-11-13 21:30:00,
2013-11-13 15:31:00,40.7,15.2,30.41,SW,216,0.0,5.0,35,0.00,,CLR,0.00,VWS V14.01,2013-11-13 21:31:00,
2013-11-13 15:33:00,40.7,15.2,30.41,SSW,196,0.0,11.0,35,0.00,,CLR,0.00,VWS V14.01,2013-11-13 21:33:00,
2013-11-13 15:34:00,40.7,15.2,30.41,SSW,196,1.0,11.0,35,0.00,,CLR,0.00,VWS V14.01,2013-11-13 21:34:00,
2013-11-13 15:36:00,40.7,15.8,30.41,SSW,192,3.0,11.0,36,0.00,,CLR,0.00,VWS V14.01,2013-11-13 21:36:00,
2013-11-13 15:37:00,40.7,15.8,30.41,SW,219,5.0,11.0,36,0.00,,CLR,0.00,VWS V14.01,2013-11-13 21:37:00,
2013-11-13 15:39:00,40.8,15.3,30.41,SSW,202,0.0,11.0,35,0.00,,CLR,0.00,VWS V14.01,2013-11-13 21:39:00,
2013-11-13 15:42:00,40.8,15.3,30.41,SSW,195,0.0,11.0,35,0.00,,CLR,0.00,VWS V14.01,2013-11-13 21:42:00,
2013-11-13 15:44:00,41.0,14.8,30.41,SSW,205,5.0,12.0,34,0.00,,CLR,0.00,VWS V14.01,2013-11-13 21:44:00,
2013-11-13 15:47:00,40.8,15.3,30.40,South,173,0.0,12.0,35,0.00,,CLR,0.00,VWS V14.01,2013-11-13 21:47:00,
2013-11-13 15:49:00,40.8,14.6,30.40,SSW,193,5.0,14.0,34,0.00,,CLR,0.00,VWS V14.01,2013-11-13 21:49:00,
2013-11-13 15:50:00,40.8,13.9,30.40,South,188,10.0,14.0,33,0.00,,CLR,0.00,VWS V14.01,2013-11-13 21:50:00,
2013-11-13 15:52:00,40.7,13.9,30.40,SSW,199,4.0,14.0,33,0.00,,CLR,0.00,VWS V14.01,2013-11-13 21:52:00,
2013-11-13 15:54:00,40.7,15.8,30.40,SSW,198,0.0,14.0,36,0.00,,CLR,0.00,VWS V14.01,2013-11-13 21:54:00,
2013-11-13 15:55:00,40.7,15.8,30.40,SSW,202,0.0,14.0,36,0.00,,CLR,0.00,VWS V14.01,2013-11-13 21:55:00,
2013-11-13 15:57:00,40.7,15.2,30.40,South,188,2.0,14.0,35,0.00,,CLR,0.00,VWS V14.01,2013-11-13 21:57:00,
2013-11-13 15:59:00,40.7,15.2,30.40,SSW,209,6.0,14.0,35,0.00,,CLR,0.00,VWS V14.01,2013-11-13 21:59:00,
2013-11-13 16:00:00,40.7,15.2,30.40,South,188,0.0,14.0,35,0.00,,CLR,0.00,VWS V14.01,2013-11-13 22:00:00,
2013-11-13 16:02:00,40.7,15.2,30.40,SSW,206,4.0,11.0,35,0.00,,CLR,0.00,VWS V14.01,2013-11-13 22:02:00,
2013-11-13 16:03:00,40.7,15.8,30.40,SSW,192,3.0,11.0,36,0.00,,CLR,0.00,VWS V14.01,2013-11-13 22:03:00,
2013-11-13 16:04:00,40.5,15.7,30.40,South,191,7.0,11.0,36,0.00,,CLR,0.00,VWS V14.01,2013-11-13 22:04:00,
2013-11-13 16:05:00,40.5,15.7,30.40,SSW,198,5.0,11.0,36,0.00,,CLR,0.00,VWS V14.01,2013-11-13 22:05:00,
2013-11-13 16:06:00,40.5,15.7,30.40,SSW,196,7.0,11.0,36,0.00,,CLR,0.00,VWS V14.01,2013-11-13 22:06:00,
2013-11-13 16:08:00,40.4,15.6,30.40,SSE,152,1.0,12.0,36,0.00,,CLR,0.00,VWS V14.01,2013-11-13 22:08:00,
2013-11-13 16:10:00,40.4,16.2,30.40,South,190,5.0,12.0,37,0.00,,CLR,0.00,VWS V14.01,2013-11-13 22:10:00,
2013-11-13 16:11:00,40.4,15.6,30.40,South,186,1.0,12.0,36,0.00,,CLR,0.00,VWS V14.01,2013-11-13 22:11:00,
2013-11-13 16:13:00,40.2,15.4,30.40,SSW,200,0.0,12.0,36,0.00,,CLR,0.00,VWS V14.01,2013-11-13 22:13:00,
2013-11-13 16:16:00,40.2,16.0,30.40,SSW,198,4.0,12.0,37,0.00,,CLR,0.00,VWS V14.01,2013-11-13 22:16:00,
2013-11-13 16:17:00,40.1,15.9,30.40,SSW,198,0.0,12.0,37,0.00,,CLR,0.00,VWS V14.01,2013-11-13 22:17:00,
2013-11-13 16:18:00,40.1,15.9,30.40,SSW,192,0.0,12.0,37,0.00,,CLR,0.00,VWS V14.01,2013-11-13 22:18:00,
2013-11-13 16:21:00,40.0,15.9,30.40,South,182,0.0,12.0,37,0.00,,CLR,0.00,VWS V14.01,2013-11-13 22:21:00,
2013-11-13 16:22:00,40.0,15.9,30.40,South,184,0.0,12.0,37,0.00,,CLR,0.00,VWS V14.01,2013-11-13 22:22:00,
2013-11-13 16:23:00,40.0,16.5,30.40,SSW,192,1.0,12.0,38,0.00,,CLR,0.00,VWS V14.01,2013-11-13 22:23:00,
2013-11-13 16:24:00,40.0,16.5,30.40,SSW,205,9.0,12.0,38,0.00,,CLR,0.00,VWS V14.01,2013-11-13 22:24:00,
2013-11-13 16:26:00,39.8,16.3,30.40,SSW,193,5.0,12.0,38,0.00,,CLR,0.00,VWS V14.01,2013-11-13 22:26:00,
2013-11-13 16:27:00,39.8,16.3,30.40,SSW,196,1.0,12.0,38,0.00,,CLR,0.00,VWS V14.01,2013-11-13 22:27:00,
2013-11-13 16:28:00,39.8,16.3,30.40,SSW,196,1.0,12.0,38,0.00,,CLR,0.00,VWS V14.01,2013-11-13 22:28:00,
2013-11-13 16:29:00,39.8,16.3,30.40,South,185,0.0,12.0,38,0.00,,CLR,0.00,VWS V14.01,2013-11-13 22:29:00,
2013-11-13 16:30:00,39.7,16.8,30.40,SE,141,0.0,12.0,39,0.00,,CLR,0.00,VWS V14.01,2013-11-13 22:30:00,
2013-11-13 16:31:00,39.7,16.8,30.40,SSE,167,0.0,1.0,39,0.00,,CLR,0.00,VWS V14.01,2013-11-13 22:31:00,
2013-11-13 16:32:00,39.5,16.6,30.40,South,190,6.0,7.0,39,0.00,,CLR,0.00,VWS V14.01,2013-11-13 22:32:00,
2013-11-13 16:33:00,39.5,16.6,30.40,SSE,159,0.0,10.0,39,0.00,,CLR,0.00,VWS V14.01,2013-11-13 22:33:00,
2013-11-13 16:34:00,39.5,16.6,30.40,SE,132,0.0,10.0,39,0.00,,CLR,0.00,VWS V14.01,2013-11-13 22:34:00,
2013-11-13 16:36:00,39.4,16.5,30.40,SSW,195,1.0,10.0,39,0.00,,CLR,0.00,VWS V14.01,2013-11-13 22:36:00,
2013-11-13 16:37:00,39.4,16.5,30.40,SSW,205,4.0,10.0,39,0.00,,CLR,0.00,VWS V14.01,2013-11-13 22:37:00,
2013-11-13 16:38:00,39.4,16.5,30.40,SSW,198,1.0,10.0,39,0.00,,CLR,0.00,VWS V14.01,2013-11-13 22:38:00,
2013-11-13 16:39:00,39.2,16.3,30.40,SSW,201,0.0,10.0,39,0.00,,CLR,0.00,VWS V14.01,2013-11-13 22:39:00,
2013-11-13 16:41:00,39.2,16.3,30.40,South,191,0.0,10.0,39,0.00,,CLR,0.00,VWS V14.01,2013-11-13 22:41:00,
2013-11-13 16:42:00,39.1,16.8,30.40,SSW,192,0.0,10.0,40,0.00,,CLR,0.00,VWS V14.01,2013-11-13 22:42:00,
2013-11-13 16:43:00,39.1,16.8,30.40,South,185,0.0,10.0,40,0.00,,CLR,0.00,VWS V14.01,2013-11-13 22:43:00,
2013-11-13 16:44:00,39.0,16.7,30.40,South,191,5.0,10.0,40,0.00,,CLR,0.00,VWS V14.01,2013-11-13 22:44:00,
2013-11-13 16:46:00,39.0,17.3,30.38,South,183,0.0,10.0,41,0.00,,CLR,0.00,VWS V14.01,2013-11-13 22:46:00,
2013-11-13 16:47:00,38.8,17.1,30.38,SSE,151,0.0,12.0,41,0.00,,CLR,0.00,VWS V14.01,2013-11-13 22:47:00,
2013-11-13 16:48:00,38.8,17.1,30.38,SSW,195,5.0,12.0,41,0.00,,CLR,0.00,VWS V14.01,2013-11-13 22:48:00,
2013-11-13 16:49:00,38.7,17.0,30.38,SSW,196,4.0,12.0,41,0.00,,CLR,0.00,VWS V14.01,2013-11-13 22:49:00,
2013-11-13 16:51:00,38.7,17.0,30.38,SSW,194,6.0,12.0,41,0.00,,CLR,0.00,VWS V14.01,2013-11-13 22:51:00,
2013-11-13 16:53:00,38.7,17.0,30.38,SSW,211,2.0,12.0,41,0.00,,CLR,0.00,VWS V14.01,2013-11-13 22:53:00,
2013-11-13 16:54:00,38.7,17.6,30.38,SSW,198,1.0,12.0,42,0.00,,CLR,0.00,VWS V14.01,2013-11-13 22:54:00,
2013-11-13 16:55:00,38.7,17.6,30.38,SSW,196,5.0,12.0,42,0.00,,CLR,0.00,VWS V14.01,2013-11-13 22:55:00,
2013-11-13 16:57:00,38.5,17.4,30.38,South,183,0.0,12.0,42,0.00,,CLR,0.00,VWS V14.01,2013-11-13 22:57:00,
2013-11-13 16:58:00,38.5,17.4,30.38,SE,142,1.0,12.0,42,0.00,,CLR,0.00,VWS V14.01,2013-11-13 22:58:00,
2013-11-13 16:59:00,38.4,17.3,30.38,South,173,3.0,12.0,42,0.00,,CLR,0.00,VWS V14.01,2013-11-13 22:59:00,
2013-11-13 17:00:00,38.4,17.3,30.38,South,171,0.0,12.0,42,0.00,,CLR,0.00,VWS V14.01,2013-11-13 23:00:00,
2013-11-13 17:02:00,38.2,17.7,30.38,South,169,0.0,1.0,43,0.00,,CLR,0.00,VWS V14.01,2013-11-13 23:02:00,
2013-11-13 17:03:00,38.2,17.7,30.38,SSE,163,4.0,4.0,43,0.00,,CLR,0.00,VWS V14.01,2013-11-13 23:03:00,
2013-11-13 17:04:00,38.2,17.7,30.38,South,185,0.0,7.0,43,0.00,,CLR,0.00,VWS V14.01,2013-11-13 23:04:00,
2013-11-13 17:05:00,38.1,17.6,30.38,South,184,0.0,7.0,43,0.00,,CLR,0.00,VWS V14.01,2013-11-13 23:05:00,
2013-11-13 17:07:00,38.1,17.6,30.38,South,175,0.0,7.0,43,0.00,,CLR,0.00,VWS V14.01,2013-11-13 23:07:00,
2013-11-13 17:08:00,37.9,17.4,30.38,South,175,0.0,7.0,43,0.00,,CLR,0.00,VWS V14.01,2013-11-13 23:08:00,
2013-11-13 17:09:00,37.9,18.0,30.38,South,175,0.0,7.0,44,0.00,,CLR,0.00,VWS V14.01,2013-11-13 23:09:00,
2013-11-13 17:10:00,37.9,18.0,30.38,South,175,0.0,7.0,44,0.00,,CLR,0.00,VWS V14.01,2013-11-13 23:10:00,
2013-11-13 17:12:00,37.8,17.3,30.38,South,182,0.0,7.0,43,0.00,,CLR,0.00,VWS V14.01,2013-11-13 23:12:00,
2013-11-13 17:13:00,37.7,17.8,30.38,South,175,0.0,7.0,44,0.00,,CLR,0.00,VWS V14.01,2013-11-13 23:13:00,
2013-11-13 17:14:00,37.7,17.8,30.38,South,171,0.0,7.0,44,0.00,,CLR,0.00,VWS V14.01,2013-11-13 23:14:00,
2013-11-13 17:15:00,37.5,17.6,30.38,South,173,0.0,7.0,44,0.00,,CLR,0.00,VWS V14.01,2013-11-13 23:15:00,
2013-11-13 17:17:00,37.5,18.1,30.38,South,172,0.0,7.0,45,0.00,,CLR,0.00,VWS V14.01,2013-11-13 23:17:00,
2013-11-13 17:18:00,37.4,18.0,30.38,South,177,1.0,7.0,45,0.00,,CLR,0.00,VWS V14.01,2013-11-13 23:18:00,
2013-11-13 17:20:00,37.2,17.8,30.38,South,187,6.0,7.0,45,0.00,,CLR,0.00,VWS V14.01,2013-11-13 23:20:00,
2013-11-13 17:22:00,37.2,17.8,30.38,SSE,165,0.0,7.0,45,0.00,,CLR,0.00,VWS V14.01,2013-11-13 23:22:00,
2013-11-13 17:23:00,37.2,17.8,30.38,SSW,206,0.0,7.0,45,0.00,,CLR,0.00,VWS V14.01,2013-11-13 23:23:00,
2013-11-13 17:25:00,37.1,17.7,30.38,SSE,166,0.0,7.0,45,0.00,,CLR,0.00,VWS V14.01,2013-11-13 23:25:00,
2013-11-13 17:27:00,37.1,17.7,30.38,SSE,168,0.0,7.0,45,0.00,,CLR,0.00,VWS V14.01,2013-11-13 23:27:00,
2013-11-13 17:28:00,36.9,17.6,30.38,South,183,0.0,7.0,45,0.00,,CLR,0.00,VWS V14.01,2013-11-13 23:28:00,
2013-11-13 17:30:00,36.9,17.6,30.38,South,179,0.0,0.0,45,0.00,,CLR,0.00,VWS V14.01,2013-11-13 23:30:00,
2013-11-13 17:31:00,36.9,18.1,30.38,South,180,0.0,0.0,46,0.00,,CLR,0.00,VWS V14.01,2013-11-13 23:31:00,
2013-11-13 17:32:00,36.9,17.6,30.38,South,175,0.0,2.0,45,0.00,,CLR,0.00,VWS V14.01,2013-11-13 23:32:00,
2013-11-13 17:33:00,36.9,17.6,30.38,ESE,111,0.0,2.0,45,0.00,,CLR,0.00,VWS V14.01,2013-11-13 23:33:00,
2013-11-13 17:35:00,36.8,18.0,30.38,ESE,115,0.0,2.0,46,0.00,,CLR,0.00,VWS V14.01,2013-11-13 23:35:00,
2013-11-13 17:36:00,36.8,18.0,30.38,ESE,115,0.0,2.0,46,0.00,,CLR,0.00,VWS V14.01,2013-11-13 23:36:00,
2013-11-13 17:37:00,36.8,18.0,30.38,ESE,115,0.0,2.0,46,0.00,,CLR,0.00,VWS V14.01,2013-11-13 23:37:00,
2013-11-13 17:39:00,36.7,17.9,30.38,South,173,0.0,2.0,46,0.00,,CLR,0.00,VWS V14.01,2013-11-13 23:39:00,
2013-11-13 17:41:00,36.5,17.7,30.38,South,171,0.0,2.0,46,0.00,,CLR,0.00,VWS V14.01,2013-11-13 23:41:00,
2013-11-13 17:42:00,36.5,17.7,30.38,SSE,163,0.0,3.0,46,0.00,,CLR,0.00,VWS V14.01,2013-11-13 23:42:00,
2013-11-13 17:44:00,36.5,18.2,30.38,SSE,163,0.0,3.0,47,0.00,,CLR,0.00,VWS V14.01,2013-11-13 23:44:00,
2013-11-13 17:46:00,36.4,18.1,30.38,South,171,0.0,3.0,47,0.00,,CLR,0.00,VWS V14.01,2013-11-13 23:46:00,
2013-11-13 17:48:00,36.4,18.1,30.38,South,171,0.0,3.0,47,0.00,,CLR,0.00,VWS V14.01,2013-11-13 23:48:00,
2013-11-13 17:49:00,36.2,17.9,30.38,South,178,0.0,4.0,47,0.00,,CLR,0.00,VWS V14.01,2013-11-13 23:49:00,
2013-11-13 17:51:00,36.2,17.9,30.38,South,178,0.0,4.0,47,0.00,,CLR,0.00,VWS V14.01,2013-11-13 23:51:00,
2013-11-13 17:52:00,36.2,17.9,30.38,SSW,199,4.0,6.0,47,0.00,,CLR,0.00,VWS V14.01,2013-11-13 23:52:00,
2013-11-13 17:53:00,36.1,17.8,30.38,SSW,199,0.0,6.0,47,0.00,,CLR,0.00,VWS V14.01,2013-11-13 23:53:00,
2013-11-13 17:54:00,36.1,17.8,30.38,South,181,0.0,6.0,47,0.00,,CLR,0.00,VWS V14.01,2013-11-13 23:54:00,
2013-11-13 17:56:00,36.1,17.8,30.38,South,181,0.0,6.0,47,0.00,,CLR,0.00,VWS V14.01,2013-11-13 23:56:00,
2013-11-13 17:57:00,35.9,18.1,30.38,South,181,0.0,6.0,48,0.00,,CLR,0.00,VWS V14.01,2013-11-13 23:57:00,
2013-11-13 17:58:00,35.9,18.1,30.38,South,179,0.0,6.0,48,0.00,,CLR,0.00,VWS V14.01,2013-11-13 23:58:00,
2013-11-13 17:59:00,35.9,18.1,30.38,South,183,0.0,6.0,48,0.00,,CLR,0.00,VWS V14.01,2013-11-13 23:59:00,
2013-11-13 18:00:00,35.8,18.0,30.38,South,180,0.0,6.0,48,0.00,,CLR,0.00,VWS V14.01,2013-11-14 00:00:00,
2013-11-13 18:01:00,35.8,18.0,30.38,South,182,0.0,0.0,48,0.00,,CLR,0.00,VWS V14.01,2013-11-14 00:01:00,
2013-11-13 18:02:00,35.8,18.0,30.38,South,182,0.0,0.0,48,0.00,,CLR,0.00,VWS V14.01,2013-11-14 00:02:00,
2013-11-13 18:03:00,35.8,18.0,30.38,South,179,0.0,0.0,48,0.00,,CLR,0.00,VWS V14.01,2013-11-14 00:03:00,
2013-11-13 18:05:00,35.7,18.0,30.38,SSE,163,0.0,3.0,48,0.00,,CLR,0.00,VWS V14.01,2013-11-14 00:05:00,
2013-11-13 18:06:00,35.7,18.0,30.38,South,175,0.0,3.0,48,0.00,,CLR,0.00,VWS V14.01,2013-11-14 00:06:00,
2013-11-13 18:07:00,35.7,18.0,30.38,South,175,0.0,3.0,48,0.00,,CLR,0.00,VWS V14.01,2013-11-14 00:07:00,
2013-11-13 18:08:00,35.7,18.0,30.38,South,176,1.0,3.0,48,0.00,,CLR,0.00,VWS V14.01,2013-11-14 00:08:00,
2013-11-13 18:10:00,35.5,18.2,30.38,South,187,4.0,7.0,49,0.00,,CLR,0.00,VWS V14.01,2013-11-14 00:10:00,
2013-11-13 18:12:00,35.5,17.8,30.38,South,188,0.0,7.0,48,0.00,,CLR,0.00,VWS V14.01,2013-11-14 00:12:00,
2013-11-13 18:13:00,35.4,18.1,30.38,South,188,0.0,7.0,49,0.00,,CLR,0.00,VWS V14.01,2013-11-14 00:13:00,
2013-11-13 18:15:00,35.4,17.7,30.37,SSE,150,0.0,7.0,48,0.00,,CLR,0.00,VWS V14.01,2013-11-14 00:15:00,
2013-11-13 18:17:00,35.4,17.7,30.37,SSE,160,0.0,7.0,48,0.00,,CLR,0.00,VWS V14.01,2013-11-14 00:17:00,
2013-11-13 18:18:00,35.2,18.0,30.37,SSE,161,0.0,7.0,49,0.00,,CLR,0.00,VWS V14.01,2013-11-14 00:18:00,
2013-11-13 18:20:00,35.2,18.0,30.37,South,172,0.0,7.0,49,0.00,,CLR,0.00,VWS V14.01,2013-11-14 00:20:00,
2013-11-13 18:22:00,35.1,18.4,30.37,South,173,0.0,7.0,50,0.00,,CLR,0.00,VWS V14.01,2013-11-14 00:22:00,
2013-11-13 18:23:00,35.1,17.9,30.37,South,186,0.0,7.0,49,0.00,,CLR,0.00,VWS V14.01,2013-11-14 00:23:00,
2013-11-13 18:26:00,34.9,18.2,30.37,South,178,0.0,7.0,50,0.00,,CLR,0.00,VWS V14.01,2013-11-14 00:26:00,
2013-11-13 18:27:00,34.9,17.7,30.37,South,180,0.0,7.0,49,0.00,,CLR,0.00,VWS V14.01,2013-11-14 00:27:00,
2013-11-13 18:28:00,34.9,18.2,30.37,South,180,0.0,7.0,50,0.00,,CLR,0.00,VWS V14.01,2013-11-14 00:28:00,
2013-11-13 18:30:00,34.8,18.1,30.37,SE,140,0.0,7.0,50,0.00,,CLR,0.00,VWS V14.01,2013-11-14 00:30:00,
2013-11-13 18:31:00,34.8,18.1,30.37,SE,140,0.0,0.0,50,0.00,,CLR,0.00,VWS V14.01,2013-11-14 00:31:00,
2013-11-13 18:32:00,34.8,18.1,30.37,SSE,157,1.0,1.0,50,0.00,,CLR,0.00,VWS V14.01,2013-11-14 00:32:00,
2013-11-13 18:33:00,34.8,18.5,30.37,SSE,157,0.0,1.0,51,0.00,,CLR,0.00,VWS V14.01,2013-11-14 00:33:00,
2013-11-13 18:34:00,34.6,18.3,30.37,SSE,160,0.0,1.0,51,0.00,,CLR,0.00,VWS V14.01,2013-11-14 00:34:00,
2013-11-13 18:36:00,34.6,18.3,30.37,SSE,161,1.0,7.0,51,0.00,,CLR,0.00,VWS V14.01,2013-11-14 00:36:00,
2013-11-13 18:37:00,34.6,18.3,30.37,SSE,156,0.0,7.0,51,0.00,,CLR,0.00,VWS V14.01,2013-11-14 00:37:00,
2013-11-13 18:38:00,34.6,18.8,30.37,SSE,156,0.0,7.0,52,0.00,,CLR,0.00,VWS V14.01,2013-11-14 00:38:00,
2013-11-13 18:39:00,34.6,18.8,30.37,South,172,0.0,7.0,52,0.00,,CLR,0.00,VWS V14.01,2013-11-14 00:39:00,
2013-11-13 18:42:00,34.5,18.7,30.37,South,180,1.0,7.0,52,0.00,,CLR,0.00,VWS V14.01,2013-11-14 00:42:00,
2013-11-13 18:43:00,34.5,18.7,30.37,South,178,0.0,7.0,52,0.00,,CLR,0.00,VWS V14.01,2013-11-14 00:43:00,
2013-11-13 18:44:00,34.5,18.7,30.37,SSE,167,0.0,7.0,52,0.00,,CLR,0.00,VWS V14.01,2013-11-14 00:44:00,
2013-11-13 18:45:00,34.5,18.7,30.36,South,180,1.0,7.0,52,0.00,,CLR,0.00,VWS V14.01,2013-11-14 00:45:00,
2013-11-13 18:47:00,34.5,18.2,30.36,South,188,0.0,7.0,51,0.00,,CLR,0.00,VWS V14.01,2013-11-14 00:47:00,
2013-11-13 18:48:00,34.5,18.2,30.36,SSE,161,0.0,7.0,51,0.00,,CLR,0.00,VWS V14.01,2013-11-14 00:48:00,
2013-11-13 18:49:00,34.5,18.2,30.36,South,184,0.0,7.0,51,0.00,,CLR,0.00,VWS V14.01,2013-11-14 00:49:00,
2013-11-13 18:50:00,34.5,18.2,30.36,South,185,0.0,7.0,51,0.00,,CLR,0.00,VWS V14.01,2013-11-14 00:50:00,
2013-11-13 18:52:00,34.6,18.3,30.36,South,184,0.0,12.0,51,0.00,,CLR,0.00,VWS V14.01,2013-11-14 00:52:00,
2013-11-13 18:54:00,34.6,18.3,30.36,South,184,0.0,12.0,51,0.00,,CLR,0.00,VWS V14.01,2013-11-14 00:54:00,
2013-11-13 18:55:00,34.6,18.3,30.36,South,179,0.0,12.0,51,0.00,,CLR,0.00,VWS V14.01,2013-11-14 00:55:00,
2013-11-13 18:57:00,34.6,18.3,30.36,SSW,200,5.0,12.0,51,0.00,,CLR,0.00,VWS V14.01,2013-11-14 00:57:00,
2013-11-13 18:58:00,34.6,18.3,30.36,SSW,200,6.0,12.0,51,0.00,,CLR,0.00,VWS V14.01,2013-11-14 00:58:00,
2013-11-13 18:59:00,34.6,18.3,30.36,South,188,0.0,12.0,51,0.00,,CLR,0.00,VWS V14.01,2013-11-14 00:59:00,
2013-11-13 19:00:00,34.6,18.3,30.35,South,186,0.0,12.0,51,0.00,,CLR,0.00,VWS V14.01,2013-11-14 01:00:00,
2013-11-13 19:01:00,34.6,18.3,30.35,SSE,161,0.0,0.0,51,0.00,,CLR,0.00,VWS V14.01,2013-11-14 01:01:00,
2013-11-13 19:02:00,34.6,18.3,30.35,SSE,163,2.0,7.0,51,0.00,,CLR,0.00,VWS V14.01,2013-11-14 01:02:00,
2013-11-13 19:03:00,34.6,18.3,30.35,South,170,0.0,7.0,51,0.00,,CLR,0.00,VWS V14.01,2013-11-14 01:03:00,
2013-11-13 19:04:00,34.6,18.3,30.35,South,177,0.0,7.0,51,0.00,,CLR,0.00,VWS V14.01,2013-11-14 01:04:00,
2013-11-13 19:05:00,34.6,18.3,30.35,SSE,164,0.0,7.0,51,0.00,,CLR,0.00,VWS V14.01,2013-11-14 01:05:00,
2013-11-13 19:06:00,34.6,18.3,30.35,SSE,167,0.0,7.0,51,0.00,,CLR,0.00,VWS V14.01,2013-11-14 01:06:00,
2013-11-13 19:07:00,34.6,18.3,30.35,SSE,167,0.0,7.0,51,0.00,,CLR,0.00,VWS V14.01,2013-11-14 01:07:00,
2013-11-13 19:08:00,34.6,18.3,30.35,South,171,0.0,7.0,51,0.00,,CLR,0.00,VWS V14.01,2013-11-14 01:08:00,
2013-11-13 19:09:00,34.6,18.3,30.35,SSE,165,0.0,7.0,51,0.00,,CLR,0.00,VWS V14.01,2013-11-14 01:09:00,
2013-11-13 19:10:00,34.6,17.9,30.35,SE,139,0.0,7.0,50,0.00,,CLR,0.00,VWS V14.01,2013-11-14 01:10:00,
2013-11-13 19:11:00,34.6,18.3,30.35,SSW,192,0.0,7.0,51,0.00,,CLR,0.00,VWS V14.01,2013-11-14 01:11:00,
2013-11-13 19:13:00,34.6,17.9,30.35,South,190,0.0,9.0,50,0.00,,CLR,0.00,VWS V14.01,2013-11-14 01:13:00,
2013-11-13 19:14:00,34.6,17.9,30.35,SSE,153,0.0,9.0,50,0.00,,CLR,0.00,VWS V14.01,2013-11-14 01:14:00,
2013-11-13 19:15:00,34.8,18.1,30.35,South,174,2.0,14.0,50,0.00,,CLR,0.00,VWS V14.01,2013-11-14 01:15:00,
2013-11-13 19:17:00,34.8,18.1,30.35,South,179,5.0,14.0,50,0.00,,CLR,0.00,VWS V14.01,2013-11-14 01:17:00,
2013-11-13 19:18:00,34.8,18.1,30.35,SSE,165,0.0,14.0,50,0.00,,CLR,0.00,VWS V14.01,2013-11-14 01:18:00,
2013-11-13 19:19:00,34.8,18.1,30.35,SSW,205,4.0,14.0,50,0.00,,CLR,0.00,VWS V14.01,2013-11-14 01:19:00,
2013-11-13 19:20:00,34.8,18.1,30.35,SE,140,0.0,14.0,50,0.00,,CLR,0.00,VWS V14.01,2013-11-14 01:20:00,
2013-11-13 19:22:00,34.8,18.1,30.35,South,184,0.0,14.0,50,0.00,,CLR,0.00,VWS V14.01,2013-11-14 01:22:00,
2013-11-13 19:24:00,34.8,18.5,30.35,South,190,0.0,14.0,51,0.00,,CLR,0.00,VWS V14.01,2013-11-14 01:24:00,
2013-11-13 19:25:00,34.6,18.3,30.35,SSE,163,2.0,14.0,51,0.00,,CLR,0.00,VWS V14.01,2013-11-14 01:25:00,
2013-11-13 19:27:00,34.6,17.9,30.35,South,179,4.0,14.0,50,0.00,,CLR,0.00,VWS V14.01,2013-11-14 01:27:00,
2013-11-13 19:29:00,34.6,17.9,30.35,South,172,0.0,14.0,50,0.00,,CLR,0.00,VWS V14.01,2013-11-14 01:29:00,
2013-11-13 19:30:00,34.6,17.9,30.35,SSW,197,0.0,14.0,50,0.00,,CLR,0.00,VWS V14.01,2013-11-14 01:30:00,
2013-11-13 19:32:00,34.6,17.9,30.35,South,181,0.0,9.0,50,0.00,,CLR,0.00,VWS V14.01,2013-11-14 01:32:00,
2013-11-13 19:34:00,34.8,18.1,30.35,South,187,0.0,9.0,50,0.00,,CLR,0.00,VWS V14.01,2013-11-14 01:34:00,
2013-11-13 19:35:00,34.8,18.1,30.35,South,184,0.0,9.0,50,0.00,,CLR,0.00,VWS V14.01,2013-11-14 01:35:00,
2013-11-13 19:38:00,34.6,17.9,30.35,South,191,2.0,9.0,50,0.00,,CLR,0.00,VWS V14.01,2013-11-14 01:38:00,
2013-11-13 19:39:00,34.6,17.9,30.35,SSE,155,6.0,11.0,50,0.00,,CLR,0.00,VWS V14.01,2013-11-14 01:39:00,
2013-11-13 19:40:00,34.8,17.6,30.35,South,181,0.0,11.0,49,0.00,,CLR,0.00,VWS V14.01,2013-11-14 01:40:00,
2013-11-13 19:41:00,34.8,18.1,30.35,ESE,111,4.0,11.0,50,0.00,,CLR,0.00,VWS V14.01,2013-11-14 01:41:00,
2013-11-13 19:43:00,34.8,18.1,30.35,SW,223,10.0,11.0,50,0.00,,CLR,0.00,VWS V14.01,2013-11-14 01:43:00,
2013-11-13 19:44:00,34.8,17.6,30.34,SSW,196,9.0,13.0,49,0.00,,CLR,0.00,VWS V14.01,2013-11-14 01:44:00,
2013-11-13 19:45:00,34.8,17.6,30.34,SSW,205,9.0,13.0,49,0.00,,CLR,0.00,VWS V14.01,2013-11-14 01:45:00,
2013-11-13 19:46:00,34.8,17.6,30.34,South,174,6.0,13.0,49,0.00,,CLR,0.00,VWS V14.01,2013-11-14 01:46:00,
2013-11-13 19:48:00,34.8,18.1,30.34,South,188,0.0,13.0,50,0.00,,CLR,0.00,VWS V14.01,2013-11-14 01:48:00,
2013-11-13 19:50:00,34.6,17.9,30.34,SSE,163,0.0,13.0,50,0.00,,CLR,0.00,VWS V14.01,2013-11-14 01:50:00,
2013-11-13 19:51:00,34.6,17.9,30.34,South,170,0.0,13.0,50,0.00,,CLR,0.00,VWS V14.01,2013-11-14 01:51:00,
2013-11-13 19:53:00,34.6,17.9,30.34,SSW,202,5.0,13.0,50,0.00,,CLR,0.00,VWS V14.01,2013-11-14 01:53:00,
2013-11-13 19:55:00,34.6,17.9,30.34,South,185,0.0,13.0,50,0.00,,CLR,0.00,VWS V14.01,2013-11-14 01:55:00,
2013-11-13 19:56:00,34.6,17.9,30.34,South,169,0.0,13.0,50,0.00,,CLR,0.00,VWS V14.01,2013-11-14 01:56:00,
2013-11-13 19:59:00,34.5,17.8,30.34,SSE,153,0.0,13.0,50,0.00,,CLR,0.00,VWS V14.01,2013-11-14 01:59:00,
2013-11-13 20:00:00,34.5,17.8,30.33,ESE,122,3.0,13.0,50,0.00,,CLR,0.00,VWS V14.01,2013-11-14 02:00:00,
2013-11-13 20:01:00,34.3,17.6,30.33,South,182,4.0,4.0,50,0.00,,CLR,0.00,VWS V14.01,2013-11-14 02:01:00,
2013-11-13 20:02:00,34.3,17.6,30.33,SSW,198,3.0,9.0,50,0.00,,CLR,0.00,VWS V14.01,2013-11-14 02:02:00,
2013-11-13 20:04:00,34.3,17.6,30.33,SSW,200,0.0,9.0,50,0.00,,CLR,0.00,VWS V14.01,2013-11-14 02:04:00,
2013-11-13 20:05:00,34.3,17.6,30.33,SSW,208,2.0,9.0,50,0.00,,CLR,0.00,VWS V14.01,2013-11-14 02:05:00,
2013-11-13 20:06:00,34.3,17.6,30.33,SSW,196,5.0,10.0,50,0.00,,CLR,0.00,VWS V14.01,2013-11-14 02:06:00,
2013-11-13 20:07:00,34.5,17.8,30.33,SSW,203,4.0,12.0,50,0.00,,CLR,0.00,VWS V14.01,2013-11-14 02:07:00,
2013-11-13 20:09:00,34.5,17.8,30.33,SSW,198,4.0,12.0,50,0.00,,CLR,0.00,VWS V14.01,2013-11-14 02:09:00,
2013-11-13 20:10:00,34.5,17.8,30.33,South,178,5.0,12.0,50,0.00,,CLR,0.00,VWS V14.01,2013-11-14 02:10:00,
2013-11-13 20:11:00,34.5,17.8,30.33,SSW,201,9.0,12.0,50,0.00,,CLR,0.00,VWS V14.01,2013-11-14 02:11:00,
2013-11-13 20:13:00,34.3,17.6,30.33,SSE,162,1.0,12.0,50,0.00,,CLR,0.00,VWS V14.01,2013-11-14 02:13:00,
2013-11-13 20:14:00,34.3,17.6,30.33,South,174,0.0,12.0,50,0.00,,CLR,0.00,VWS V14.01,2013-11-14 02:14:00,
2013-11-13 20:15:00,34.3,17.6,30.33,SSW,209,9.0,12.0,50,0.00,,CLR,0.00,VWS V14.01,2013-11-14 02:15:00,
2013-11-13 20:16:00,34.3,17.6,30.33,South,180,0.0,12.0,50,0.00,,CLR,0.00,VWS V14.01,2013-11-14 02:16:00,
2013-11-13 20:18:00,34.3,17.6,30.33,SSW,195,5.0,12.0,50,0.00,,CLR,0.00,VWS V14.01,2013-11-14 02:18:00,
2013-11-13 20:20:00,34.3,17.1,30.33,SSW,209,7.0,12.0,49,0.00,,CLR,0.00,VWS V14.01,2013-11-14 02:20:00,
2013-11-13 20:21:00,34.3,17.1,30.33,South,185,5.0,12.0,49,0.00,,CLR,0.00,VWS V14.01,2013-11-14 02:21:00,
2013-11-13 20:23:00,34.5,17.3,30.33,South,170,0.0,12.0,49,0.00,,CLR,0.00,VWS V14.01,2013-11-14 02:23:00,
2013-11-13 20:25:00,34.5,17.3,30.33,South,169,0.0,12.0,49,0.00,,CLR,0.00,VWS V14.01,2013-11-14 02:25:00,
2013-11-13 20:26:00,34.5,17.8,30.33,South,188,5.0,12.0,50,0.00,,CLR,0.00,VWS V14.01,2013-11-14 02:26:00,
2013-11-13 20:28:00,34.5,17.8,30.33,South,178,0.0,12.0,50,0.00,,CLR,0.00,VWS V14.01,2013-11-14 02:28:00,
2013-11-13 20:30:00,34.3,17.6,30.32,SSE,162,3.0,4.0,50,0.00,,CLR,0.00,VWS V14.01,2013-11-14 02:30:00,
2013-11-13 20:31:00,34.3,17.6,30.32,South,180,0.0,4.0,50,0.00,,CLR,0.00,VWS V14.01,2013-11-14 02:31:00,
2013-11-13 20:32:00,34.3,17.6,30.32,South,180,0.0,4.0,50,0.00,,CLR,0.00,VWS V14.01,2013-11-14 02:32:00,
2013-11-13 20:33:00,34.3,17.6,30.32,South,186,4.0,7.0,50,0.00,,CLR,0.00,VWS V14.01,2013-11-14 02:33:00,
2013-11-13 20:35:00,34.3,17.6,30.32,South,184,11.0,11.0,50,0.00,,CLR,0.00,VWS V14.01,2013-11-14 02:35:00,
2013-11-13 20:37:00,34.3,17.1,30.32,SSW,202,2.0,12.0,49,0.00,,CLR,0.00,VWS V14.01,2013-11-14 02:37:00,
2013-11-13 20:38:00,34.5,17.8,30.32,South,177,1.0,12.0,50,0.00,,CLR,0.00,VWS V14.01,2013-11-14 02:38:00,
2013-11-13 20:40:00,34.5,17.8,30.32,SSE,167,6.0,12.0,50,0.00,,CLR,0.00,VWS V14.01,2013-11-14 02:40:00,
2013-11-13 20:41:00,34.5,17.8,30.32,South,174,5.0,12.0,50,0.00,,CLR,0.00,VWS V14.01,2013-11-14 02:41:00,
2013-11-13 20:42:00,34.5,17.3,30.32,South,172,1.0,12.0,49,0.00,,CLR,0.00,VWS V14.01,2013-11-14 02:42:00,
2013-11-13 20:43:00,34.6,17.4,30.32,SW,215,4.0,12.0,49,0.00,,CLR,0.00,VWS V14.01,2013-11-14 02:43:00,
2013-11-13 20:46:00,34.6,17.9,30.32,SSW,205,7.0,12.0,50,0.00,,CLR,0.00,VWS V14.01,2013-11-14 02:46:00,
2013-11-13 20:47:00,34.8,17.6,30.32,South,186,3.0,12.0,49,0.00,,CLR,0.00,VWS V14.01,2013-11-14 02:47:00,
2013-11-13 20:48:00,34.8,17.6,30.32,SSW,193,5.0,12.0,49,0.00,,CLR,0.00,VWS V14.01,2013-11-14 02:48:00,
2013-11-13 20:51:00,34.9,17.7,30.32,SW,227,9.0,13.0,49,0.00,,CLR,0.00,VWS V14.01,2013-11-14 02:51:00,
2013-11-13 20:53:00,34.9,17.7,30.32,South,182,0.0,13.0,49,0.00,,CLR,0.00,VWS V14.01,2013-11-14 02:53:00,
2013-11-13 20:56:00,34.9,17.7,30.32,SSW,206,7.0,13.0,49,0.00,,CLR,0.00,VWS V14.01,2013-11-14 02:56:00,
2013-11-13 20:58:00,35.1,17.9,30.32,SSW,204,5.0,13.0,49,0.00,,CLR,0.00,VWS V14.01,2013-11-14 02:58:00,
2013-11-13 21:00:00,35.1,17.9,30.31,South,180,5.0,13.0,49,0.00,,CLR,0.00,VWS V14.01,2013-11-14 03:00:00,
2013-11-13 21:01:00,35.1,17.9,30.31,SSW,200,1.0,9.0,49,0.00,,CLR,0.00,VWS V14.01,2013-11-14 03:01:00,
2013-11-13 21:02:00,35.1,17.4,30.31,South,188,11.0,11.0,48,0.00,,CLR,0.00,VWS V14.01,2013-11-14 03:02:00,
2013-11-13 21:03:00,35.1,17.4,30.31,SSW,197,6.0,11.0,48,0.00,,CLR,0.00,VWS V14.01,2013-11-14 03:03:00,
2013-11-13 21:04:00,35.1,17.9,30.31,South,175,4.0,11.0,49,0.00,,CLR,0.00,VWS V14.01,2013-11-14 03:04:00,
2013-11-13 21:06:00,35.1,17.9,30.31,SSW,211,7.0,11.0,49,0.00,,CLR,0.00,VWS V14.01,2013-11-14 03:06:00,
2013-11-13 21:07:00,35.1,17.9,30.31,South,191,4.0,11.0,49,0.00,,CLR,0.00,VWS V14.01,2013-11-14 03:07:00,
2013-11-13 21:08:00,35.1,17.9,30.31,SSW,205,5.0,11.0,49,0.00,,CLR,0.00,VWS V14.01,2013-11-14 03:08:00,
2013-11-13 21:09:00,35.1,17.9,30.31,SSW,200,5.0,11.0,49,0.00,,CLR,0.00,VWS V14.01,2013-11-14 03:09:00,
2013-11-13 21:11:00,34.9,17.7,30.31,SSW,213,2.0,11.0,49,0.00,,CLR,0.00,VWS V14.01,2013-11-14 03:11:00,
2013-11-13 21:13:00,34.9,17.7,30.31,SSW,196,6.0,15.0,49,0.00,,CLR,0.00,VWS V14.01,2013-11-14 03:13:00,
2013-11-13 21:14:00,35.1,17.9,30.31,South,178,6.0,15.0,49,0.00,,CLR,0.00,VWS V14.01,2013-11-14 03:14:00,
2013-11-13 21:16:00,34.9,17.7,30.30,South,178,1.0,15.0,49,0.00,,CLR,0.00,VWS V14.01,2013-11-14 03:16:00,
2013-11-13 21:18:00,34.9,17.7,30.30,South,169,4.0,15.0,49,0.00,,CLR,0.00,VWS V14.01,2013-11-14 03:18:00,
2013-11-13 21:19:00,34.8,18.1,30.30,South,182,3.0,15.0,50,0.00,,CLR,0.00,VWS V14.01,2013-11-14 03:19:00,
2013-11-13 21:21:00,34.8,18.1,30.30,South,184,5.0,15.0,50,0.00,,CLR,0.00,VWS V14.01,2013-11-14 03:21:00,
2013-11-13 21:24:00,34.6,17.9,30.30,SSW,200,1.0,15.0,50,0.00,,CLR,0.00,VWS V14.01,2013-11-14 03:24:00,
2013-11-13 21:25:00,34.6,17.9,30.30,South,188,5.0,15.0,50,0.00,,CLR,0.00,VWS V14.01,2013-11-14 03:25:00,
2013-11-13 21:26:00,34.6,17.9,30.30,South,173,3.0,15.0,50,0.00,,CLR,0.00,VWS V14.01,2013-11-14 03:26:00,
2013-11-13 21:29:00,34.6,17.9,30.30,South,187,4.0,15.0,50,0.00,,CLR,0.00,VWS V14.01,2013-11-14 03:29:00,
2013-11-13 21:30:00,34.6,17.9,30.30,SSW,194,3.0,15.0,50,0.00,,CLR,0.00,VWS V14.01,2013-11-14 03:30:00,
2013-11-13 21:31:00,34.5,17.8,30.30,South,188,3.0,7.0,50,0.00,,CLR,0.00,VWS V14.01,2013-11-14 03:31:00,
2013-11-13 21:34:00,34.5,17.8,30.30,South,177,4.0,12.0,50,0.00,,CLR,0.00,VWS V14.01,2013-11-14 03:34:00,
2013-11-13 21:35:00,34.5,17.8,30.30,SSW,197,6.0,12.0,50,0.00,,CLR,0.00,VWS V14.01,2013-11-14 03:35:00,
2013-11-13 21:36:00,34.5,17.8,30.30,South,177,1.0,12.0,50,0.00,,CLR,0.00,VWS V14.01,2013-11-14 03:36:00,
2013-11-13 21:39:00,34.5,17.8,30.30,SSE,156,3.0,14.0,50,0.00,,CLR,0.00,VWS V14.01,2013-11-14 03:39:00,
2013-11-13 21:40:00,34.5,18.2,30.30,SSW,207,7.0,14.0,51,0.00,,CLR,0.00,VWS V14.01,2013-11-14 03:40:00,
2013-11-13 21:41:00,34.5,18.2,30.30,SSW,201,4.0,14.0,51,0.00,,CLR,0.00,VWS V14.01,2013-11-14 03:41:00,
2013-11-13 21:44:00,34.5,18.2,30.29,SSW,203,6.0,14.0,51,0.00,,CLR,0.00,VWS V14.01,2013-11-14 03:44:00,
2013-11-13 21:45:00,34.5,18.2,30.29,SSW,197,10.0,14.0,51,0.00,,CLR,0.00,VWS V14.01,2013-11-14 03:45:00,
2013-11-13 21:46:00,34.5,18.2,30.29,SSW,207,5.0,14.0,51,0.00,,CLR,0.00,VWS V14.01,2013-11-14 03:46:00,
2013-11-13 21:49:00,34.5,18.2,30.29,SSW,196,4.0,14.0,51,0.00,,CLR,0.00,VWS V14.01,2013-11-14 03:49:00,
2013-11-13 21:50:00,34.5,18.2,30.29,SSW,196,3.0,14.0,51,0.00,,CLR,0.00,VWS V14.01,2013-11-14 03:50:00,
2013-11-13 21:51:00,34.5,18.2,30.29,SW,217,7.0,14.0,51,0.00,,CLR,0.00,VWS V14.01,2013-11-14 03:51:00,
2013-11-13 21:52:00,34.5,18.2,30.29,SSW,205,0.0,14.0,51,0.00,,CLR,0.00,VWS V14.01,2013-11-14 03:52:00,
2013-11-13 21:54:00,34.5,18.2,30.29,South,176,7.0,14.0,51,0.00,,CLR,0.00,VWS V14.01,2013-11-14 03:54:00,
2013-11-13 21:55:00,34.5,18.7,30.29,SSW,197,4.0,14.0,52,0.00,,CLR,0.00,VWS V14.01,2013-11-14 03:55:00,
2013-11-13 21:56:00,34.3,18.5,30.29,South,188,7.0,14.0,52,0.00,,CLR,0.00,VWS V14.01,2013-11-14 03:56:00,
2013-11-13 21:57:00,34.5,18.2,30.29,South,187,9.0,14.0,51,0.00,,CLR,0.00,VWS V14.01,2013-11-14 03:57:00,
2013-11-13 21:59:00,34.3,18.5,30.29,SSW,196,6.0,14.0,52,0.00,,CLR,0.00,VWS V14.01,2013-11-14 03:59:00,
2013-11-13 22:00:00,34.3,18.5,30.29,South,184,0.0,0.0,52,0.00,,CLR,0.00,VWS V14.01,2013-11-14 04:00:00,
2013-11-13 22:01:00,34.3,18.5,30.29,SW,217,4.0,9.0,52,0.00,,CLR,0.00,VWS V14.01,2013-11-14 04:01:00,
2013-11-13 22:02:00,34.3,18.5,30.29,WSW,244,6.0,9.0,52,0.00,,CLR,0.00,VWS V14.01,2013-11-14 04:02:00,
2013-11-13 22:05:00,34.2,18.4,30.29,SW,217,7.0,12.0,52,0.00,,CLR,0.00,VWS V14.01,2013-11-14 04:05:00,
2013-11-13 22:06:00,34.3,18.5,30.29,SSW,208,6.0,12.0,52,0.00,,CLR,0.00,VWS V14.01,2013-11-14 04:06:00,
2013-11-13 22:07:00,34.3,18.5,30.29,South,190,0.0,12.0,52,0.00,,CLR,0.00,VWS V14.01,2013-11-14 04:07:00,
2013-11-13 22:08:00,34.2,18.9,30.29,South,190,5.0,12.0,53,0.00,,CLR,0.00,VWS V14.01,2013-11-14 04:08:00,
2013-11-13 22:10:00,34.2,18.9,30.29,South,190,3.0,12.0,53,0.00,,CLR,0.00,VWS V14.01,2013-11-14 04:10:00,
2013-11-13 22:11:00,34.2,18.9,30.29,SSW,194,10.0,13.0,53,0.00,,CLR,0.00,VWS V14.01,2013-11-14 04:11:00,
2013-11-13 22:12:00,34.2,18.9,30.29,SW,218,6.0,13.0,53,0.00,,CLR,0.00,VWS V14.01,2013-11-14 04:12:00,
2013-11-13 22:13:00,34.2,18.9,30.29,SSW,201,5.0,13.0,53,0.00,,CLR,0.00,VWS V14.01,2013-11-14 04:13:00,
2013-11-13 22:15:00,34.2,18.9,30.29,South,176,5.0,13.0,53,0.00,,CLR,0.00,VWS V14.01,2013-11-14 04:15:00,
2013-11-13 22:16:00,34.0,18.7,30.29,SSW,205,8.0,13.0,53,0.00,,CLR,0.00,VWS V14.01,2013-11-14 04:16:00,
2013-11-13 22:17:00,34.0,18.7,30.29,SSW,194,8.0,13.0,53,0.00,,CLR,0.00,VWS V14.01,2013-11-14 04:17:00,
2013-11-13 22:18:00,34.0,18.7,30.29,South,188,5.0,13.0,53,0.00,,CLR,0.00,VWS V14.01,2013-11-14 04:18:00,
2013-11-13 22:20:00,34.0,18.7,30.29,South,179,9.0,13.0,53,0.00,,CLR,0.00,VWS V14.01,2013-11-14 04:20:00,
2013-11-13 22:21:00,34.0,18.7,30.29,South,191,6.0,13.0,53,0.00,,CLR,0.00,VWS V14.01,2013-11-14 04:21:00,
2013-11-13 22:22:00,34.0,19.1,30.29,South,191,6.0,13.0,54,0.00,,CLR,0.00,VWS V14.01,2013-11-14 04:22:00,
2013-11-13 22:23:00,34.0,18.7,30.29,SSW,205,10.0,13.0,53,0.00,,CLR,0.00,VWS V14.01,2013-11-14 04:23:00,
2013-11-13 22:25:00,34.0,18.7,30.29,SSW,204,5.0,13.0,53,0.00,,CLR,0.00,VWS V14.01,2013-11-14 04:25:00,
2013-11-13 22:26:00,34.0,18.7,30.29,SSE,161,5.0,13.0,53,0.00,,CLR,0.00,VWS V14.01,2013-11-14 04:26:00,
2013-11-13 22:27:00,33.9,18.6,30.29,SSW,204,4.0,13.0,53,0.00,,CLR,0.00,VWS V14.01,2013-11-14 04:27:00,
2013-11-13 22:28:00,33.9,19.0,30.29,South,183,5.0,13.0,54,0.00,,CLR,0.00,VWS V14.01,2013-11-14 04:28:00,
2013-11-13 22:29:00,33.9,19.0,30.29,SW,215,9.0,13.0,54,0.00,,CLR,0.00,VWS V14.01,2013-11-14 04:29:00,
2013-11-13 22:30:00,33.9,19.0,30.29,SSW,205,6.0,13.0,54,0.00,,CLR,0.00,VWS V14.01,2013-11-14 04:30:00,
2013-11-13 22:31:00,33.9,19.0,30.29,SSW,192,8.0,8.0,54,0.00,,CLR,0.00,VWS V14.01,2013-11-14 04:31:00,
2013-11-13 22:32:00,33.9,19.0,30.29,South,182,6.0,14.0,54,0.00,,CLR,0.00,VWS V14.01,2013-11-14 04:32:00,
2013-11-13 22:33:00,33.9,19.0,30.29,SSW,213,7.0,14.0,54,0.00,,CLR,0.00,VWS V14.01,2013-11-14 04:33:00,
2013-11-13 22:34:00,33.9,19.0,30.29,SW,214,5.0,14.0,54,0.00,,CLR,0.00,VWS V14.01,2013-11-14 04:34:00,
2013-11-13 22:35:00,33.7,18.8,30.29,SSE,153,5.0,14.0,54,0.00,,CLR,0.00,VWS V14.01,2013-11-14 04:35:00,
2013-11-13 22:36:00,33.7,18.8,30.29,SSW,192,7.0,14.0,54,0.00,,CLR,0.00,VWS V14.01,2013-11-14 04:36:00,
2013-11-13 22:38:00,33.7,18.8,30.29,South,188,0.0,14.0,54,0.00,,CLR,0.00,VWS V14.01,2013-11-14 04:38:00,
2013-11-13 22:39:00,33.7,18.8,30.29,SSW,203,11.0,14.0,54,0.00,,CLR,0.00,VWS V14.01,2013-11-14 04:39:00,
2013-11-13 22:40:00,33.7,18.8,30.29,SSW,196,1.0,14.0,54,0.00,,CLR,0.00,VWS V14.01,2013-11-14 04:40:00,
2013-11-13 22:41:00,33.6,18.7,30.29,South,183,3.0,14.0,54,0.00,,CLR,0.00,VWS V14.01,2013-11-14 04:41:00,
2013-11-13 22:42:00,33.6,18.7,30.29,South,183,0.0,14.0,54,0.00,,CLR,0.00,VWS V14.01,2013-11-14 04:42:00,
2013-11-13 22:43:00,33.6,18.7,30.29,SSW,205,6.0,14.0,54,0.00,,CLR,0.00,VWS V14.01,2013-11-14 04:43:00,
2013-11-13 22:44:00,33.6,18.7,30.29,SSW,205,6.0,14.0,54,0.00,,CLR,0.00,VWS V14.01,2013-11-14 04:44:00,
2013-11-13 22:45:00,33.6,18.7,30.29,South,190,6.0,14.0,54,0.00,,CLR,0.00,VWS V14.01,2013-11-14 04:45:00,
2013-11-13 22:46:00,33.7,18.8,30.29,SSW,209,13.0,14.0,54,0.00,,CLR,0.00,VWS V14.01,2013-11-14 04:46:00,
2013-11-13 22:47:00,33.7,18.8,30.29,South,186,9.0,14.0,54,0.00,,CLR,0.00,VWS V14.01,2013-11-14 04:47:00,
2013-11-13 22:48:00,33.7,18.8,30.29,SSW,192,4.0,15.0,54,0.00,,CLR,0.00,VWS V14.01,2013-11-14 04:48:00,
2013-11-13 22:49:00,33.7,18.8,30.29,South,182,6.0,15.0,54,0.00,,CLR,0.00,VWS V14.01,2013-11-14 04:49:00,
2013-11-13 22:50:00,33.7,18.8,30.29,SSW,209,8.0,15.0,54,0.00,,CLR,0.00,VWS V14.01,2013-11-14 04:50:00,
2013-11-13 22:52:00,33.6,18.7,30.29,South,183,7.0,15.0,54,0.00,,CLR,0.00,VWS V14.01,2013-11-14 04:52:00,
2013-11-13 22:53:00,33.6,18.7,30.29,South,189,1.0,15.0,54,0.00,,CLR,0.00,VWS V14.01,2013-11-14 04:53:00,
2013-11-13 22:54:00,33.6,18.7,30.29,SSW,211,9.0,15.0,54,0.00,,CLR,0.00,VWS V14.01,2013-11-14 04:54:00,
2013-11-13 22:55:00,33.6,18.7,30.29,WSW,237,10.0,15.0,54,0.00,,CLR,0.00,VWS V14.01,2013-11-14 04:55:00,
2013-11-13 22:57:00,33.6,18.7,30.29,SSW,206,6.0,15.0,54,0.00,,CLR,0.00,VWS V14.01,2013-11-14 04:57:00,
2013-11-13 22:58:00,33.6,18.7,30.29,SSW,194,7.0,15.0,54,0.00,,CLR,0.00,VWS V14.01,2013-11-14 04:58:00,
2013-11-13 23:00:00,33.6,18.7,30.28,SW,217,6.0,15.0,54,0.00,,CLR,0.00,VWS V14.01,2013-11-14 05:00:00,
2013-11-13 23:01:00,33.6,18.7,30.28,SSW,198,5.0,6.0,54,0.00,,CLR,0.00,VWS V14.01,2013-11-14 05:01:00,
2013-11-13 23:02:00,33.6,19.2,30.28,South,191,10.0,13.0,55,0.00,,CLR,0.00,VWS V14.01,2013-11-14 05:02:00,
2013-11-13 23:06:00,33.6,18.7,30.28,SSW,196,5.0,13.0,54,0.00,,CLR,0.00,VWS V14.01,2013-11-14 05:06:00,
2013-11-13 23:07:00,33.6,18.7,30.28,SSW,204,4.0,13.0,54,0.00,,CLR,0.00,VWS V14.01,2013-11-14 05:07:00,
2013-11-13 23:11:00,33.4,19.0,30.28,SSW,203,5.0,13.0,55,0.00,,CLR,0.00,VWS V14.01,2013-11-14 05:11:00,
2013-11-13 23:12:00,33.4,19.0,30.28,SW,222,9.0,13.0,55,0.00,,CLR,0.00,VWS V14.01,2013-11-14 05:12:00,
2013-11-13 23:16:00,33.4,18.6,30.27,SSW,209,3.0,13.0,54,0.00,,CLR,0.00,VWS V14.01,2013-11-14 05:16:00,
2013-11-13 23:17:00,33.4,19.0,30.27,SSW,200,4.0,13.0,55,0.00,,CLR,0.00,VWS V14.01,2013-11-14 05:17:00,
2013-11-13 23:18:00,33.4,19.0,30.27,SSW,201,4.0,13.0,55,0.00,,CLR,0.00,VWS V14.01,2013-11-14 05:18:00,
2013-11-13 23:21:00,33.4,18.6,30.27,South,190,9.0,14.0,54,0.00,,CLR,0.00,VWS V14.01,2013-11-14 05:21:00,
2013-11-13 23:22:00,33.4,18.6,30.27,SSW,206,6.0,14.0,54,0.00,,CLR,0.00,VWS V14.01,2013-11-14 05:22:00,
2013-11-13 23:23:00,33.4,18.6,30.27,SW,219,10.0,14.0,54,0.00,,CLR,0.00,VWS V14.01,2013-11-14 05:23:00,
2013-11-13 23:26:00,33.3,18.5,30.27,South,185,5.0,14.0,54,0.00,,CLR,0.00,VWS V14.01,2013-11-14 05:26:00,
2013-11-13 23:27:00,33.3,18.5,30.27,South,172,7.0,14.0,54,0.00,,CLR,0.00,VWS V14.01,2013-11-14 05:27:00,
2013-11-13 23:28:00,33.4,18.6,30.27,SSE,155,4.0,14.0,54,0.00,,CLR,0.00,VWS V14.01,2013-11-14 05:28:00,
2013-11-13 23:30:00,33.4,18.6,30.27,SSW,202,15.0,18.0,54,0.00,,CLR,0.00,VWS V14.01,2013-11-14 05:30:00,
2013-11-13 23:31:00,33.4,18.6,30.27,SSW,196,2.0,15.0,54,0.00,,CLR,0.00,VWS V14.01,2013-11-14 05:31:00,
2013-11-13 23:32:00,33.4,18.6,30.27,SSW,196,1.0,15.0,54,0.00,,CLR,0.00,VWS V14.01,2013-11-14 05:32:00,
2013-11-13 23:33:00,33.4,18.6,30.27,SSW,196,3.0,15.0,54,0.00,,CLR,0.00,VWS V14.01,2013-11-14 05:33:00,
2013-11-13 23:37:00,33.4,18.6,30.27,South,182,3.0,15.0,54,0.00,,CLR,0.00,VWS V14.01,2013-11-14 05:37:00,
2013-11-13 23:38:00,33.3,18.9,30.27,South,183,4.0,15.0,55,0.00,,CLR,0.00,VWS V14.01,2013-11-14 05:38:00,
2013-11-13 23:42:00,33.3,18.9,30.27,SSW,213,5.0,15.0,55,0.00,,CLR,0.00,VWS V14.01,2013-11-14 05:42:00,
2013-11-13 23:43:00,33.1,18.7,30.27,SSW,200,4.0,15.0,55,0.00,,CLR,0.00,VWS V14.01,2013-11-14 05:43:00,
2013-11-13 23:47:00,33.1,18.7,30.27,SW,217,6.0,15.0,55,0.00,,CLR,0.00,VWS V14.01,2013-11-14 05:47:00,
2013-11-13 23:48:00,33.1,18.7,30.27,SSW,197,5.0,15.0,55,0.00,,CLR,0.00,VWS V14.01,2013-11-14 05:48:00,
2013-11-13 23:49:00,33.1,18.7,30.27,SW,225,7.0,15.0,55,0.00,,CLR,0.00,VWS V14.01,2013-11-14 05:49:00,
2013-11-13 23:52:00,33.0,18.6,30.27,SSW,206,5.0,16.0,55,0.00,,CLR,0.00,VWS V14.01,2013-11-14 05:52:00,
2013-11-13 23:53:00,33.0,18.6,30.27,South,177,4.0,16.0,55,0.00,,CLR,0.00,VWS V14.01,2013-11-14 05:53:00,
2013-11-13 23:55:00,33.0,18.6,30.27,SSW,213,0.0,16.0,55,0.00,,CLR,0.00,VWS V14.01,2013-11-14 05:55:00,
2013-11-13 23:57:00,33.0,19.0,30.27,South,186,5.0,16.0,56,0.00,,CLR,0.00,VWS V14.01,2013-11-14 05:57:00,
2013-11-13 23:58:00,33.0,19.0,30.27,SSW,193,10.0,16.0,56,0.00,,CLR,0.00,VWS V14.01,2013-11-14 05:58:00,